M I D A S
Marine Information and Data Acquisition System
Tripno 760 of the Zeeleeuw from 2004-06-25 06:46:14 to 2004-06-25 15:04:37
Back to CruiseResearch ActivitiesStationsMapUnderway DataData graphs

EquipmentUnitsComment
TimeDGPSUTC
LatitudeDGPSDM.mWGS84
LongitudeDGPSDM.mWGS84
TemperatureSBE03/SBE38deg celciusITS90
ConductivitySBE21S/mITS90
SalinitySBE21 Practical Salinity Units
ChlorophylAChelsea fluorimeterg/lCalibrated in Aceton
Missing or incorrect values are displayed as -999
Sea surface data collected by the RV Zeeleeuw from 2004-06-25 06:46:14 to 2004-06-25 15:04:37
                                                                                    Next 1000 lines
Time Latitude Longitude Temperature Conductivity Salinity ChlorophylA
2004-06-25 06:46:23 51°13.661 2°55.969 18.964337 0.022845 0.12063 7.848358
2004-06-25 06:46:28 51°13.661 2°55.969 18.98922 0.022845 0.120629 7.814648
2004-06-25 06:46:33 51°13.661 2°55.969 18.976944 0.022845 0.120632 7.814648
2004-06-25 06:46:37 51°13.66 2°55.969 18.976944 0.022845 0.120632 7.814648
2004-06-25 06:46:42 51°13.66 2°55.969 18.978915 0.022845 0.12063 7.848358
2004-06-25 06:46:48 51°13.66 2°55.969 18.97678 0.022845 0.120632 7.814648
2004-06-25 06:46:52 51°13.66 2°55.969 18.977149 0.022845 0.120632 7.814648
2004-06-25 06:46:58 51°13.66 2°55.969 18.977026 0.022845 0.120634 7.814648
2004-06-25 06:47:04 51°13.66 2°55.969 18.978915 0.022845 0.120632 7.848358
2004-06-25 06:47:08 51°13.659 2°55.969 18.978915 0.022845 0.120632 7.848358
2004-06-25 06:47:12 51°13.659 2°55.968 18.974891 0.022845 0.120632 7.814648
2004-06-25 06:47:18 51°13.66 2°55.967 18.958998 0.022845 0.120634 7.814648
2004-06-25 06:47:24 51°13.661 2°55.964 18.964871 0.022845 0.120634 7.848358
2004-06-25 06:47:28 51°13.662 2°55.962 18.972879 0.022845 0.120634 7.814648
2004-06-25 06:47:33 51°13.663 2°55.958 18.993776 0.022845 0.120636 7.848358
2004-06-25 06:47:38 51°13.664 2°55.953 18.993776 0.022845 0.120636 7.848358
2004-06-25 06:47:44 51°13.666 2°55.947 18.992258 0.022845 0.120636 7.814648
2004-06-25 06:47:49 51°13.667 2°55.942 18.982446 0.022845 0.120636 7.848358
2004-06-25 06:47:54 51°13.669 2°55.936 18.988193 0.022845 0.120639 7.814648
2004-06-25 06:47:58 51°13.67 2°55.931 18.99 0.022845 0.120639 7.814648
2004-06-25 06:48:04 51°13.672 2°55.923 18.982199 0.022845 0.120639 7.814648
2004-06-25 06:48:09 51°13.674 2°55.916 18.982199 0.022845 0.120639 7.814648
2004-06-25 06:48:14 51°13.675 2°55.909 18.986305 0.022845 0.120639 7.848358
2004-06-25 06:48:18 51°13.677 2°55.903 18.982528 0.022845 0.120639 7.848358
2004-06-25 06:48:24 51°13.679 2°55.893 18.98454 0.022845 0.120637 7.814648
2004-06-25 06:48:29 51°13.681 2°55.885 18.988645 0.022845 0.120639 7.848358
2004-06-25 06:48:34 51°13.683 2°55.876 18.979859 0.022845 0.120641 7.814648
2004-06-25 06:48:38 51°13.685 2°55.869 18.979859 0.022845 0.120641 7.814648
2004-06-25 06:48:44 51°13.687 2°55.858 18.992791 0.022845 0.120641 7.814648
2004-06-25 06:48:49 51°13.689 2°55.849 18.983185 0.022845 0.120641 7.814648
2004-06-25 06:48:54 51°13.69 2°55.839 18.98454 0.022845 0.120641 7.848358
2004-06-25 06:48:58 51°13.692 2°55.831 18.990821 0.022845 0.120641 7.814648
2004-06-25 06:49:04 51°13.693 2°55.819 18.988193 0.022845 0.120641 7.814648
2004-06-25 06:49:09 51°13.695 2°55.809 18.988193 0.022845 0.120641 7.814648
2004-06-25 06:49:14 51°13.696 2°55.799 18.986757 0.022845 0.120641 7.814648
2004-06-25 06:49:18 51°13.697 2°55.791 18.998579 0.022845 0.120642 7.848358
2004-06-25 06:49:24 51°13.698 2°55.78 18.992545 0.022845 0.120642 7.848358
2004-06-25 06:49:29 51°13.699 2°55.772 19.022464 0.022845 0.120644 7.814648
2004-06-25 06:49:34 51°13.7 2°55.766 18.991026 0.022845 0.120642 7.848358
2004-06-25 06:49:38 51°13.7 2°55.763 18.991026 0.022845 0.120642 7.848358
2004-06-25 06:49:44 51°13.7 2°55.761 19.021356 0.022845 0.120641 7.848358
2004-06-25 06:49:49 51°13.7 2°55.761 19.033296 0.022845 0.120642 7.780939
2004-06-25 06:49:53 51°13.701 2°55.762 19.04347 0.022845 0.120641 7.848358
2004-06-25 06:49:57 51°13.702 2°55.764 19.053437 0.022845 0.120641 7.848358
2004-06-25 06:50:02 51°13.703 2°55.767 19.017048 0.022845 0.120641 7.814648
2004-06-25 06:50:08 51°13.704 2°55.769 19.017048 0.022845 0.120641 7.814648
2004-06-25 06:50:13 51°13.705 2°55.77 18.979654 0.022845 0.120642 7.814648
2004-06-25 06:50:18 51°13.705 2°55.77 18.984006 0.022845 0.120642 7.814648
2004-06-25 06:50:23 51°13.704 2°55.769 18.992258 0.022845 0.120644 7.848358
2004-06-25 06:50:28 51°13.703 2°55.767 18.992258 0.022845 0.120646 7.814648
2004-06-25 06:50:32 51°13.702 2°55.765 18.989836 0.022845 0.120646 7.848358
2004-06-25 06:50:38 51°13.699 2°55.762 18.989836 0.022845 0.120646 7.848358
2004-06-25 06:50:42 51°13.698 2°55.759 19.019469 0.022845 0.120647 7.848358
2004-06-25 06:50:49 51°13.695 2°55.756 19.010194 0.022845 0.120647 7.848358
2004-06-25 06:50:54 51°13.695 2°55.754 19.036455 0.022845 0.120647 7.814648
2004-06-25 06:50:58 51°13.694 2°55.754 19.024147 0.022845 0.120647 7.848358
2004-06-25 06:51:04 51°13.695 2°55.755 19.05676 0.022845 0.120647 7.814648
2004-06-25 06:51:09 51°13.696 2°55.755 19.05676 0.022845 0.120647 7.814648
2004-06-25 06:51:14 51°13.698 2°55.757 19.060369 0.022845 0.120647 7.848358
2004-06-25 06:51:18 51°13.701 2°55.758 19.095793 0.022845 0.120647 7.814648
2004-06-25 06:51:24 51°13.706 2°55.758 19.097924 0.022845 0.120646 7.848358
2004-06-25 06:51:29 51°13.711 2°55.757 19.095916 0.022845 0.120646 7.848358
2004-06-25 06:51:34 51°13.717 2°55.754 19.09362 0.022845 0.120647 7.814648
2004-06-25 06:51:38 51°13.722 2°55.75 19.06611 0.022845 0.120647 7.848358
2004-06-25 06:51:44 51°13.728 2°55.743 19.06611 0.022845 0.120647 7.848358
2004-06-25 06:51:48 51°13.732 2°55.738 19.03826 0.022845 0.120649 7.814648
2004-06-25 06:51:53 51°13.738 2°55.732 19.020454 0.022845 0.120651 7.848358
2004-06-25 06:51:58 51°13.743 2°55.726 18.997594 0.022845 0.120653 7.882067
2004-06-25 06:52:02 51°13.749 2°55.721 19.004161 0.022845 0.120653 7.814648
2004-06-25 06:52:08 51°13.756 2°55.713 19.004161 0.022845 0.120653 7.814648
2004-06-25 06:52:12 51°13.762 2°55.707 19.004654 0.022845 0.120653 7.814648
2004-06-25 06:52:18 51°13.77 2°55.699 19.001616 0.022845 0.120653 7.814648
2004-06-25 06:52:23 51°13.777 2°55.691 19.003258 0.022845 0.120654 7.814648
2004-06-25 06:52:28 51°13.784 2°55.683 19.005516 0.022845 0.120654 7.814648
2004-06-25 06:52:33 51°13.792 2°55.675 19.00137 0.022845 0.120656 7.814648
2004-06-25 06:52:38 51°13.8 2°55.667 19.00137 0.022845 0.120656 7.814648
2004-06-25 06:52:43 51°13.808 2°55.658 18.997594 0.022845 0.120656 7.814648
2004-06-25 06:52:48 51°13.817 2°55.65 19.00059 0.022845 0.120656 7.814648
2004-06-25 06:52:53 51°13.826 2°55.641 18.995706 0.022845 0.120656 7.848358
2004-06-25 06:52:58 51°13.835 2°55.633 18.988768 0.022845 0.120656 7.848358
2004-06-25 06:53:02 51°13.842 2°55.627 18.994146 0.022845 0.120656 7.848358
2004-06-25 06:53:08 51°13.853 2°55.617 18.994146 0.022845 0.120656 7.848358
2004-06-25 06:53:13 51°13.863 2°55.61 18.998333 0.022845 0.120658 7.814648
2004-06-25 06:53:18 51°13.873 2°55.603 19.010112 0.022845 0.120656 7.848358
2004-06-25 06:53:22 51°13.882 2°55.598 19.002478 0.022845 0.120658 7.848358
2004-06-25 06:53:28 51°13.894 2°55.589 19.010112 0.022845 0.120659 7.848358
2004-06-25 06:53:32 51°13.902 2°55.584 19.023449 0.022845 0.120658 7.814648
2004-06-25 06:53:38 51°13.915 2°55.575 19.038835 0.022845 0.120659 7.814648
2004-06-25 06:53:43 51°13.925 2°55.568 19.038835 0.022845 0.120659 7.814648
2004-06-25 06:53:48 51°13.935 2°55.56 19.02111 0.022845 0.120659 7.814648
2004-06-25 06:53:53 51°13.946 2°55.553 19.018935 0.022845 0.120661 7.814648
2004-06-25 06:53:56 51°13.952 2°55.548 19.014175 0.022845 0.120661 7.848358
2004-06-25 06:54:04 51°13.969 2°55.536 19.007732 0.022845 0.120663 7.848358
2004-06-25 06:54:08 51°13.978 2°55.53 19.007732 0.022845 0.120663 7.848358
2004-06-25 06:54:13 51°13.989 2°55.523 19.027922 0.022845 0.120661 7.848358
2004-06-25 06:54:18 51°14 2°55.515 19.01081 0.022845 0.120663 7.814648
2004-06-25 06:54:21 51°14.006 2°55.51 19.004531 0.022845 0.120663 7.848358
2004-06-25 06:54:28 51°14.022 2°55.499 19.017581 0.022845 0.120663 7.848358
2004-06-25 06:54:32 51°14.031 2°55.493 19.003094 0.022845 0.120663 7.814648
2004-06-25 06:54:38 51°14.044 2°55.484 19.003094 0.022845 0.120663 7.814648
2004-06-25 06:54:43 51°14.055 2°55.476 19.011672 0.022845 0.120665 7.814648
2004-06-25 06:54:48 51°14.067 2°55.468 19.051715 0.022845 0.120665 7.814648
2004-06-25 06:54:53 51°14.078 2°55.46 19.030465 0.022845 0.120665 7.848358
2004-06-25 06:54:58 51°14.089 2°55.453 19.016309 0.022845 0.120666 7.814648
2004-06-25 06:55:04 51°14.103 2°55.443 19.047408 0.022845 0.120666 7.814648
2004-06-25 06:55:08 51°14.112 2°55.437 19.047408 0.022845 0.120666 7.814648
2004-06-25 06:55:18 51°14.135 2°55.42 19.037153 0.022845 0.120666 7.848358
2004-06-25 06:55:23 51°14.146 2°55.411 19.034445 0.022845 0.12067 7.814648
2004-06-25 06:55:28 51°14.158 2°55.401 19.076402 0.022845 0.120668 7.814648
2004-06-25 06:55:32 51°14.167 2°55.393 19.047613 0.022845 0.120668 7.848358
2004-06-25 06:55:37 51°14.178 2°55.381 19.047613 0.022845 0.120668 7.848358
2004-06-25 06:55:43 51°14.192 2°55.366 19.038794 0.022845 0.120668 7.848358
2004-06-25 06:55:48 51°14.203 2°55.353 19.050197 0.022845 0.12067 7.814648
2004-06-25 06:55:53 51°14.214 2°55.338 19.043183 0.022845 0.120668 7.814648
2004-06-25 06:55:58 51°14.224 2°55.323 19.026034 0.022845 0.120671 7.848358
2004-06-25 06:56:03 51°14.235 2°55.309 19.064183 0.022845 0.12067 7.848358
2004-06-25 06:56:08 51°14.245 2°55.293 19.064183 0.022845 0.12067 7.848358
2004-06-25 06:56:18 51°14.265 2°55.259 19.020905 0.022845 0.120671 7.814648
2004-06-25 06:56:24 51°14.276 2°55.238 19.036455 0.022845 0.120671 7.848358
2004-06-25 06:56:28 51°14.283 2°55.224 19.007322 0.022845 0.120671 7.780939
2004-06-25 06:56:33 51°14.292 2°55.205 19.035142 0.022845 0.120671 7.814648
2004-06-25 06:56:37 51°14.299 2°55.191 19.035142 0.022845 0.120671 7.814648
2004-06-25 06:56:43 51°14.31 2°55.169 19.009743 0.022845 0.120671 7.814648
2004-06-25 06:56:48 51°14.319 2°55.151 19.028619 0.022845 0.120673 7.814648
2004-06-25 06:56:53 51°14.328 2°55.133 19.031081 0.022845 0.120675 7.814648
2004-06-25 06:56:58 51°14.338 2°55.116 19.044701 0.022845 0.120675 7.848358
2004-06-25 06:57:02 51°14.346 2°55.102 18.966309 0.022845 0.120675 7.814648
2004-06-25 06:57:08 51°14.358 2°55.081 18.966309 0.022845 0.120675 7.814648
2004-06-25 06:57:13 51°14.368 2°55.064 19.032189 0.022845 0.120678 7.848358
2004-06-25 06:57:17 51°14.377 2°55.05 18.994679 0.022845 0.120676 7.814648
2004-06-25 06:57:22 51°14.388 2°55.035 18.996239 0.022845 0.120682 7.780939
2004-06-25 06:57:28 51°14.403 2°55.018 18.993817 0.022845 0.12068 7.848358
2004-06-25 06:57:32 51°14.414 2°55.007 19.001986 0.022845 0.120682 7.814648
2004-06-25 06:57:38 51°14.43 2°54.994 19.001986 0.022845 0.120682 7.814648
2004-06-25 06:57:44 51°14.448 2°54.982 18.993325 0.022845 0.120682 7.814648
2004-06-25 06:57:48 51°14.46 2°54.976 19.034568 0.022845 0.120685 7.814648
2004-06-25 06:57:52 51°14.472 2°54.969 18.996321 0.022845 0.120687 7.848358
2004-06-25 06:57:58 51°14.49 2°54.96 19.017417 0.022845 0.120688 7.848358
2004-06-25 06:58:04 51°14.508 2°54.951 19.002725 0.022845 0.120692 7.814648
2004-06-25 06:58:08 51°14.521 2°54.945 19.002725 0.022845 0.120692 7.814648
2004-06-25 06:58:12 51°14.533 2°54.939 19.037194 0.022845 0.120694 7.848358
2004-06-25 06:58:18 51°14.552 2°54.928 19.017335 0.022845 0.120697 7.848358
2004-06-25 06:58:23 51°14.567 2°54.92 19.000549 0.022845 0.1207 7.814648
2004-06-25 06:58:28 51°14.582 2°54.911 18.999769 0.022845 0.1207 7.814648
2004-06-25 06:58:32 51°14.593 2°54.903 19.03904 0.022845 0.120704 7.848358
2004-06-25 06:58:38 51°14.61 2°54.89 19.03904 0.022845 0.120704 7.848358
2004-06-25 06:58:43 51°14.625 2°54.879 19.028906 0.022845 0.120705 7.814648
2004-06-25 06:58:48 51°14.639 2°54.866 19.032558 0.022845 0.120709 7.814648
2004-06-25 06:58:50 51°14.645 2°54.861 19.034978 0.022845 0.120714 7.848358
2004-06-25 06:58:58 51°14.667 2°54.843 18.986798 0.022845 0.120714 7.848358
2004-06-25 06:59:03 51°14.682 2°54.833 19.012534 0.022845 0.120717 7.848358
2004-06-25 06:59:08 51°14.697 2°54.824 19.012534 0.022845 0.120717 7.848358
2004-06-25 06:59:12 51°14.709 2°54.817 19.029029 0.022845 0.120717 7.814648
2004-06-25 06:59:17 51°14.725 2°54.81 19.006295 0.022845 0.120721 7.848358
2004-06-25 06:59:23 51°14.744 2°54.804 18.986346 0.022845 0.120723 7.814648
2004-06-25 06:59:28 51°14.76 2°54.799 19.048392 0.022845 0.120726 7.814648
2004-06-25 06:59:33 51°14.776 2°54.792 19.002889 0.022845 0.120728 7.848358
2004-06-25 06:59:38 51°14.792 2°54.785 19.002889 0.022845 0.120728 7.848358
2004-06-25 06:59:43 51°14.808 2°54.778 19.032681 0.022845 0.120733 7.848358
2004-06-25 06:59:48 51°14.824 2°54.77 19.010153 0.022741 0.120193 7.814648
2004-06-25 06:59:53 51°14.841 2°54.762 19.034117 0.022845 0.120738 7.780939
2004-06-25 06:59:58 51°14.857 2°54.754 19.012944 0.022741 0.120195 7.814648
2004-06-25 07:00:03 51°14.873 2°54.746 19.017786 0.022845 0.120738 7.814648
2004-06-25 07:00:08 51°14.889 2°54.738 19.017786 0.022845 0.120738 7.814648
2004-06-25 07:00:13 51°14.904 2°54.73 19.041583 0.022845 0.120741 7.848358
2004-06-25 07:00:18 51°14.92 2°54.723 19.040886 0.022845 0.120741 7.848358
2004-06-25 07:00:23 51°14.936 2°54.716 19.03145 0.022845 0.120741 7.848358
2004-06-25 07:00:28 51°14.952 2°54.708 19.01832 0.022741 0.120202 7.848358
2004-06-25 07:00:33 51°14.968 2°54.701 19.027388 0.022845 0.120746 7.814648
2004-06-25 07:00:37 51°14.981 2°54.695 19.027388 0.022845 0.120746 7.814648
2004-06-25 07:00:41 51°14.993 2°54.689 19.017048 0.022741 0.120203 7.780939
2004-06-25 07:00:48 51°15.016 2°54.678 19.047695 0.022845 0.120746 7.848358
2004-06-25 07:00:53 51°15.032 2°54.67 19.022341 0.022845 0.120746 7.814648
2004-06-25 07:01:00 51°15.054 2°54.66 19.021356 0.022845 0.120746 7.780939
2004-06-25 07:01:07 51°15.076 2°54.65 19.04667 0.022741 0.120207 7.848358
2004-06-25 07:01:13 51°15.096 2°54.642 19.025419 0.022845 0.120746 7.848358
2004-06-25 07:01:17 51°15.109 2°54.636 19.035758 0.022845 0.120748 7.848358
2004-06-25 07:01:21 51°15.122 2°54.63 19.031614 0.022741 0.120205 7.814648
2004-06-25 07:01:26 51°15.139 2°54.624 19.02148 0.022741 0.120208 7.780939
2004-06-25 07:01:32 51°15.158 2°54.616 19.02148 0.022741 0.120208 7.780939
2004-06-25 07:01:37 51°15.174 2°54.61 19.058031 0.022741 0.120208 7.848358
2004-06-25 07:01:40 51°15.184 2°54.606 19.033132 0.022845 0.12075 7.814648
2004-06-25 07:01:46 51°15.204 2°54.597 19.034117 0.022741 0.120208 7.814648
2004-06-25 07:01:50 51°15.217 2°54.592 19.030835 0.022741 0.120212 7.848358
2004-06-25 07:01:57 51°15.24 2°54.582 19.055324 0.022741 0.120213 7.814648
2004-06-25 07:02:00 51°15.25 2°54.578 19.055324 0.022741 0.120213 7.814648
2004-06-25 07:02:06 51°15.27 2°54.57 19.036291 0.022741 0.120213 7.814648
2004-06-25 07:02:12 51°15.289 2°54.563 19.050648 0.022741 0.120213 7.848358
2004-06-25 07:02:17 51°15.305 2°54.556 19.03904 0.022845 0.12075 7.848358
2004-06-25 07:02:21 51°15.318 2°54.551 19.04347 0.022845 0.120748 7.814648
2004-06-25 07:02:28 51°15.341 2°54.543 19.05233 0.022741 0.120203 7.814648
2004-06-25 07:02:32 51°15.354 2°54.538 19.05233 0.022741 0.120203 7.814648
2004-06-25 07:02:37 51°15.37 2°54.53 19.055775 0.022741 0.120208 7.848358
2004-06-25 07:02:41 51°15.384 2°54.525 19.052535 0.022741 0.120212 7.814648
2004-06-25 07:02:47 51°15.404 2°54.517 19.060246 0.022845 0.120752 7.814648
2004-06-25 07:02:52 51°15.42 2°54.511 19.039778 0.022741 0.120215 7.814648
2004-06-25 07:02:54 51°15.427 2°54.509 19.050936 0.022845 0.120757 7.848358
2004-06-25 07:03:00 51°15.447 2°54.5 19.050936 0.022845 0.120757 7.848358
2004-06-25 07:03:06 51°15.467 2°54.492 19.057744 0.022845 0.120758 7.848358
2004-06-25 07:03:12 51°15.486 2°54.483 19.050238 0.022741 0.120215 7.848358
2004-06-25 07:03:17 51°15.504 2°54.477 19.057826 0.022845 0.120758 7.848358
2004-06-25 07:03:22 51°15.52 2°54.469 19.053684 0.022845 0.120758 7.848358
2004-06-25 07:03:27 51°15.537 2°54.462 19.06898 0.022741 0.120217 7.814648
2004-06-25 07:03:33 51°15.557 2°54.453 19.06898 0.022741 0.120217 7.814648
2004-06-25 07:03:36 51°15.567 2°54.449 19.067053 0.022845 0.12076 7.814648
2004-06-25 07:03:42 51°15.586 2°54.44 19.052781 0.022741 0.120217 7.848358
2004-06-25 07:03:45 51°15.597 2°54.436 19.058441 0.022845 0.12076 7.814648
2004-06-25 07:03:52 51°15.619 2°54.426 19.066274 0.022741 0.120217 7.814648
2004-06-25 07:03:57 51°15.636 2°54.418 19.063239 0.022741 0.120219 7.780939
2004-06-25 07:04:01 51°15.649 2°54.414 19.063239 0.022741 0.120219 7.780939
2004-06-25 07:04:06 51°15.665 2°54.407 19.066807 0.022741 0.120219 7.848358
2004-06-25 07:04:12 51°15.685 2°54.398 19.057457 0.022741 0.120222 7.814648
2004-06-25 07:04:17 51°15.701 2°54.391 19.064018 0.022741 0.120224 7.814648
2004-06-25 07:04:22 51°15.717 2°54.385 19.066151 0.022741 0.120224 7.848358
2004-06-25 07:04:26 51°15.731 2°54.38 19.076033 0.022741 0.120224 7.848358
2004-06-25 07:04:32 51°15.751 2°54.372 19.076033 0.022741 0.120224 7.848358
2004-06-25 07:04:36 51°15.764 2°54.367 19.081076 0.022845 0.120767 7.814648
2004-06-25 07:04:41 51°15.78 2°54.36 19.070867 0.022741 0.120227 7.814648
2004-06-25 07:04:47 51°15.8 2°54.352 19.067873 0.022741 0.120227 7.848358
2004-06-25 07:04:52 51°15.816 2°54.345 19.068529 0.022741 0.120227 7.848358
2004-06-25 07:04:56 51°15.83 2°54.339 19.076771 0.022741 0.120229 7.814648
2004-06-25 07:05:02 51°15.849 2°54.333 19.076771 0.022741 0.120229 7.814648
2004-06-25 07:05:08 51°15.868 2°54.324 19.066725 0.022741 0.12023 7.848358
2004-06-25 07:05:10 51°15.875 2°54.322 19.082265 0.022741 0.12023 7.848358
2004-06-25 07:05:21 51°15.91 2°54.309 19.08288 0.022741 0.120234 7.814648
2004-06-25 07:05:28 51°15.933 2°54.3 19.073737 0.022741 0.120237 7.848358
2004-06-25 07:05:30 51°15.939 2°54.297 19.073737 0.022741 0.120237 7.848358
2004-06-25 07:05:37 51°15.962 2°54.288 19.082962 0.022741 0.120237 7.814648
2004-06-25 07:05:42 51°15.979 2°54.282 19.07919 0.022741 0.120239 7.814648
2004-06-25 07:05:47 51°15.996 2°54.276 19.083126 0.022741 0.120239 7.848358
2004-06-25 07:05:52 51°16.012 2°54.269 19.083044 0.022741 0.120239 7.848358
2004-06-25 07:05:57 51°16.029 2°54.263 19.086734 0.022741 0.120241 7.814648
2004-06-25 07:06:02 51°16.046 2°54.257 19.086734 0.022741 0.120241 7.814648
2004-06-25 07:06:06 51°16.06 2°54.253 19.08411 0.022741 0.120241 7.814648
2004-06-25 07:06:11 51°16.077 2°54.249 19.085914 0.022741 0.120242 7.814648
2004-06-25 07:06:17 51°16.097 2°54.245 19.09444 0.022845 0.120782 7.814648
2004-06-25 07:06:19 51°16.104 2°54.244 19.08493 0.022741 0.120242 7.814648
2004-06-25 07:06:26 51°16.126 2°54.242 19.09276 0.022741 0.120246 7.814648
2004-06-25 07:06:32 51°16.143 2°54.24 19.09276 0.022741 0.120246 7.814648
2004-06-25 07:06:36 51°16.153 2°54.241 19.089521 0.022741 0.120244 7.814648
2004-06-25 07:06:42 51°16.168 2°54.241 19.092637 0.022741 0.120244 7.814648
2004-06-25 07:06:46 51°16.177 2°54.242 19.091694 0.022845 0.120784 7.814648
2004-06-25 07:06:52 51°16.19 2°54.243 19.09526 0.022845 0.120786 7.814648
2004-06-25 07:06:57 51°16.199 2°54.245 19.099482 0.022845 0.120786 7.814648
2004-06-25 07:07:02 51°16.208 2°54.248 19.099482 0.022845 0.120786 7.814648
2004-06-25 07:07:05 51°16.213 2°54.25 19.093948 0.022845 0.120786 7.780939
2004-06-25 07:07:11 51°16.222 2°54.254 19.093825 0.022845 0.120784 7.848358
2004-06-25 07:07:17 51°16.231 2°54.259 19.100794 0.022845 0.120786 7.814648
2004-06-25 07:07:22 51°16.237 2°54.263 19.09776 0.022845 0.120786 7.814648
2004-06-25 07:07:26 51°16.242 2°54.267 19.099318 0.022845 0.120782 7.814648
2004-06-25 07:07:32 51°16.249 2°54.274 19.099277 0.022845 0.120784 7.814648
2004-06-25 07:07:37 51°16.255 2°54.279 19.099277 0.022845 0.120784 7.814648
2004-06-25 07:07:42 51°16.259 2°54.286 19.0994 0.022845 0.120784 7.814648
2004-06-25 07:07:47 51°16.263 2°54.291 19.107392 0.022845 0.120784 7.814648
2004-06-25 07:07:52 51°16.267 2°54.296 19.111326 0.022845 0.120782 7.780939
2004-06-25 07:07:57 51°16.27 2°54.302 19.109728 0.022845 0.120782 7.814648
2004-06-25 07:08:02 51°16.273 2°54.306 19.109728 0.022845 0.120782 7.814648
2004-06-25 07:08:07 51°16.275 2°54.311 19.109646 0.022845 0.120781 7.814648
2004-06-25 07:08:12 51°16.277 2°54.314 19.111162 0.022845 0.120781 7.814648
2004-06-25 07:08:17 51°16.278 2°54.318 19.117965 0.022845 0.120781 7.814648
2004-06-25 07:08:22 51°16.28 2°54.321 19.1144 0.022845 0.120781 7.814648
2004-06-25 07:08:27 51°16.281 2°54.323 19.115097 0.022845 0.120781 7.814648
2004-06-25 07:08:32 51°16.281 2°54.327 19.115097 0.022845 0.120781 7.814648
2004-06-25 07:08:37 51°16.282 2°54.329 19.114728 0.022845 0.120779 7.848358
2004-06-25 07:08:41 51°16.283 2°54.332 19.114359 0.022845 0.120781 7.814648
2004-06-25 07:08:47 51°16.284 2°54.336 19.109974 0.022845 0.120779 7.814648
2004-06-25 07:08:52 51°16.284 2°54.34 19.112925 0.022845 0.120779 7.814648
2004-06-25 07:08:57 51°16.285 2°54.343 19.110712 0.022845 0.120779 7.814648
2004-06-25 07:09:02 51°16.287 2°54.345 19.110712 0.022845 0.120779 7.814648
2004-06-25 07:09:06 51°16.286 2°54.35 19.116572 0.022845 0.120779 7.814648
2004-06-25 07:09:10 51°16.287 2°54.352 19.119112 0.022845 0.120777 7.780939
2004-06-25 07:09:16 51°16.288 2°54.357 19.114933 0.022845 0.120779 7.814648
2004-06-25 07:09:21 51°16.289 2°54.359 19.115629 0.022845 0.120781 7.848358
2004-06-25 07:09:26 51°16.29 2°54.362 19.122104 0.022845 0.120781 7.848358
2004-06-25 07:09:32 51°16.291 2°54.366 19.122104 0.022845 0.120781 7.848358
2004-06-25 07:09:37 51°16.291 2°54.371 19.122186 0.022845 0.120784 7.780939
2004-06-25 07:09:40 51°16.292 2°54.372 19.131855 0.022845 0.120784 7.814648
2004-06-25 07:09:47 51°16.293 2°54.378 19.124152 0.022845 0.120784 7.814648
2004-06-25 07:09:52 51°16.294 2°54.38 19.131322 0.022845 0.120784 7.780939
2004-06-25 07:09:55 51°16.294 2°54.383 19.126119 0.022845 0.120781 7.814648
2004-06-25 07:10:02 51°16.296 2°54.387 19.124398 0.022845 0.120784 7.848358
2004-06-25 07:10:07 51°16.296 2°54.39 19.124398 0.022845 0.120784 7.848358
2004-06-25 07:10:10 51°16.297 2°54.392 19.128987 0.022845 0.120782 7.780939
2004-06-25 07:10:17 51°16.298 2°54.396 19.131117 0.022845 0.120782 7.780939
2004-06-25 07:10:22 51°16.299 2°54.4 19.136648 0.022845 0.120784 7.814648
2004-06-25 07:10:27 51°16.3 2°54.404 19.131814 0.022845 0.120784 7.814648
2004-06-25 07:10:32 51°16.301 2°54.408 19.131814 0.022845 0.120784 7.814648
2004-06-25 07:10:37 51°16.302 2°54.411 19.136812 0.022845 0.120784 7.814648
2004-06-25 07:10:42 51°16.304 2°54.414 19.142956 0.022845 0.120784 7.814648
2004-06-25 07:10:46 51°16.305 2°54.418 19.137426 0.022845 0.120784 7.814648
2004-06-25 07:10:50 51°16.307 2°54.42 19.136935 0.022845 0.120784 7.848358
2004-06-25 07:10:57 51°16.31 2°54.426 19.140581 0.022845 0.120784 7.780939
2004-06-25 07:11:02 51°16.312 2°54.43 19.140581 0.022845 0.120784 7.780939
2004-06-25 07:11:07 51°16.314 2°54.433 19.138205 0.022845 0.120786 7.780939
2004-06-25 07:11:12 51°16.317 2°54.438 19.142178 0.022845 0.120786 7.848358
2004-06-25 07:11:17 51°16.319 2°54.443 19.143571 0.022845 0.120786 7.780939
2004-06-25 07:11:22 51°16.322 2°54.447 19.148691 0.022845 0.120786 7.780939
2004-06-25 07:11:26 51°16.325 2°54.45 19.149101 0.022845 0.120786 7.814648
2004-06-25 07:11:32 51°16.329 2°54.456 19.149101 0.022845 0.120786 7.814648
2004-06-25 07:11:37 51°16.332 2°54.461 19.145824 0.022845 0.120786 7.848358
2004-06-25 07:11:42 51°16.335 2°54.466 19.146356 0.022845 0.120786 7.814648
2004-06-25 07:11:47 51°16.338 2°54.471 19.148036 0.022845 0.120786 7.814648
2004-06-25 07:11:50 51°16.341 2°54.474 19.149019 0.022845 0.120786 7.848358
2004-06-25 07:11:57 51°16.345 2°54.481 19.152746 0.022845 0.120786 7.848358
2004-06-25 07:12:02 51°16.348 2°54.486 19.152746 0.022845 0.120786 7.848358
2004-06-25 07:12:07 51°16.352 2°54.491 19.147995 0.022845 0.120786 7.814648
2004-06-25 07:12:12 51°16.355 2°54.497 19.156432 0.022845 0.120786 7.814648
2004-06-25 07:12:16 51°16.357 2°54.501 19.15205 0.022845 0.120784 7.814648
2004-06-25 07:12:22 51°16.36 2°54.508 19.15205 0.022845 0.120786 7.814648
2004-06-25 07:12:27 51°16.363 2°54.513 19.153606 0.022845 0.120786 7.848358
2004-06-25 07:12:32 51°16.366 2°54.518 19.153606 0.022845 0.120786 7.848358
2004-06-25 07:12:37 51°16.368 2°54.523 19.153934 0.022845 0.120786 7.848358
2004-06-25 07:12:41 51°16.371 2°54.527 19.164295 0.022949 0.121329 7.814648
2004-06-25 07:12:46 51°16.373 2°54.532 19.166055 0.022845 0.120786 7.780939
2004-06-25 07:12:52 51°16.377 2°54.539 19.161797 0.022845 0.120786 7.814648
2004-06-25 07:12:57 51°16.379 2°54.545 19.157415 0.022845 0.120786 7.814648
2004-06-25 07:13:02 51°16.382 2°54.549 19.157415 0.022845 0.120786 7.814648
2004-06-25 07:13:07 51°16.384 2°54.554 19.162616 0.022845 0.120788 7.780939
2004-06-25 07:13:12 51°16.386 2°54.561 19.164499 0.022845 0.120788 7.780939
2004-06-25 07:13:17 51°16.389 2°54.566 19.172361 0.022949 0.121331 7.814648
2004-06-25 07:13:20 51°16.39 2°54.569 19.169782 0.022845 0.120791 7.814648
2004-06-25 07:13:26 51°16.394 2°54.575 19.16581 0.022845 0.120789 7.780939
2004-06-25 07:13:31 51°16.396 2°54.58 19.16581 0.022845 0.120789 7.780939
2004-06-25 07:13:37 51°16.399 2°54.588 19.169864 0.022845 0.120791 7.814648
2004-06-25 07:13:42 51°16.402 2°54.592 19.170273 0.022845 0.120793 7.814648
2004-06-25 07:13:46 51°16.404 2°54.596 19.169208 0.022845 0.120791 7.780939
2004-06-25 07:13:52 51°16.408 2°54.602 19.17752 0.022949 0.121335 7.780939
2004-06-25 07:13:57 51°16.41 2°54.609 19.178175 0.022845 0.120793 7.814648
2004-06-25 07:14:02 51°16.413 2°54.614 19.178175 0.022845 0.120793 7.814648
2004-06-25 07:14:07 51°16.415 2°54.619 19.173876 0.022845 0.120794 7.814648
2004-06-25 07:14:12 51°16.417 2°54.626 19.174941 0.022845 0.120794 7.780939
2004-06-25 07:14:17 51°16.42 2°54.63 19.181205 0.022845 0.120794 7.848358
2004-06-25 07:14:22 51°16.423 2°54.636 19.182351 0.022845 0.120794 7.848358
2004-06-25 07:14:27 51°16.425 2°54.643 19.177275 0.022949 0.121335 7.780939
2004-06-25 07:14:32 51°16.427 2°54.648 19.177275 0.022949 0.121335 7.780939
2004-06-25 07:14:37 51°16.429 2°54.654 19.179567 0.022949 0.121336 7.780939
2004-06-25 07:14:41 51°16.431 2°54.659 19.18493 0.022845 0.120796 7.848358
2004-06-25 07:14:46 51°16.433 2°54.665 19.190416 0.022949 0.121336 7.780939
2004-06-25 07:14:52 51°16.435 2°54.672 19.180222 0.022949 0.121338 7.814648
2004-06-25 07:14:57 51°16.438 2°54.678 19.183088 0.022949 0.121336 7.848358
2004-06-25 07:15:01 51°16.439 2°54.683 19.183088 0.022949 0.121336 7.848358
2004-06-25 07:15:07 51°16.442 2°54.69 19.189679 0.022949 0.121335 7.780939
2004-06-25 07:15:12 51°16.444 2°54.696 19.189761 0.022949 0.121338 7.780939
2004-06-25 07:15:16 51°16.445 2°54.701 19.185135 0.022845 0.120794 7.780939
2004-06-25 07:15:22 51°16.448 2°54.708 19.187714 0.022949 0.121336 7.848358
2004-06-25 07:15:27 51°16.449 2°54.714 19.196024 0.022949 0.121338 7.780939
2004-06-25 07:15:32 51°16.452 2°54.721 19.196024 0.022949 0.121338 7.780939
2004-06-25 07:15:37 51°16.454 2°54.726 19.18931 0.022845 0.120794 7.780939
2004-06-25 07:15:41 51°16.455 2°54.732 19.19324 0.022949 0.121338 7.814648
2004-06-25 07:15:46 51°16.457 2°54.737 19.200853 0.022949 0.121338 7.814648
2004-06-25 07:15:52 51°16.459 2°54.745 19.197661 0.022949 0.121338 7.814648
2004-06-25 07:15:57 51°16.461 2°54.751 19.19324 0.022949 0.121336 7.814648
2004-06-25 07:16:01 51°16.463 2°54.756 19.19324 0.022949 0.121336 7.814648
2004-06-25 07:16:06 51°16.464 2°54.762 19.195573 0.022949 0.121338 7.780939
2004-06-25 07:16:12 51°16.467 2°54.769 19.196187 0.022949 0.121336 7.814648
2004-06-25 07:16:17 51°16.469 2°54.776 19.198643 0.022949 0.121338 7.780939
2004-06-25 07:16:22 51°16.471 2°54.781 19.201754 0.022949 0.121336 7.814648
2004-06-25 07:16:27 51°16.473 2°54.787 19.202286 0.022949 0.121336 7.814648
2004-06-25 07:16:32 51°16.475 2°54.794 19.202286 0.022949 0.121336 7.814648
2004-06-25 07:16:37 51°16.477 2°54.799 19.197456 0.022949 0.121336 7.780939
2004-06-25 07:16:41 51°16.478 2°54.804 19.201672 0.022949 0.121338 7.814648
2004-06-25 07:16:46 51°16.481 2°54.81 19.208834 0.022845 0.120794 7.814648
2004-06-25 07:16:52 51°16.483 2°54.817 19.208629 0.022949 0.121336 7.780939
2004-06-25 07:16:57 51°16.485 2°54.823 19.21223 0.022949 0.121336 7.814648
2004-06-25 07:17:01 51°16.487 2°54.828 19.211658 0.022949 0.121336 7.848358
2004-06-25 07:17:07 51°16.489 2°54.835 19.211658 0.022949 0.121336 7.848358
2004-06-25 07:17:12 51°16.491 2°54.84 19.209243 0.022949 0.121336 7.814648
2004-06-25 07:17:17 51°16.494 2°54.846 19.204946 0.022949 0.121335 7.814648
2004-06-25 07:17:22 51°16.496 2°54.852 19.211944 0.022949 0.121335 7.814648
2004-06-25 07:17:26 51°16.497 2°54.857 19.205846 0.022949 0.121335 7.848358
2004-06-25 07:17:32 51°16.5 2°54.863 19.205846 0.022949 0.121335 7.848358
2004-06-25 07:17:37 51°16.502 2°54.869 19.214972 0.022949 0.121335 7.814648
2004-06-25 07:17:42 51°16.504 2°54.875 19.213622 0.022949 0.121335 7.814648
2004-06-25 07:17:47 51°16.506 2°54.881 19.210757 0.022949 0.121335 7.848358
2004-06-25 07:17:52 51°16.509 2°54.887 19.216568 0.022949 0.121336 7.814648
2004-06-25 07:17:56 51°16.51 2°54.891 19.21178 0.022949 0.121335 7.814648
2004-06-25 07:18:02 51°16.513 2°54.897 19.21178 0.022949 0.121335 7.814648
2004-06-25 07:18:07 51°16.514 2°54.904 19.216036 0.022949 0.121335 7.814648
2004-06-25 07:18:12 51°16.517 2°54.909 19.221151 0.022949 0.121335 7.814648
2004-06-25 07:18:17 51°16.519 2°54.914 19.215954 0.022949 0.121335 7.780939
2004-06-25 07:18:20 51°16.52 2°54.919 19.215259 0.022949 0.121335 7.814648
2004-06-25 07:18:26 51°16.523 2°54.925 19.215504 0.022949 0.121338 7.848358
2004-06-25 07:18:32 51°16.525 2°54.932 19.215504 0.022949 0.121338 7.848358
2004-06-25 07:18:37 51°16.527 2°54.938 19.220783 0.022949 0.121338 7.814648
2004-06-25 07:18:42 51°16.53 2°54.944 19.227124 0.022949 0.12134 7.814648
2004-06-25 07:18:45 51°16.531 2°54.947 19.227206 0.022949 0.12134 7.814648
2004-06-25 07:18:52 51°16.534 2°54.955 19.221028 0.022949 0.121341 7.814648
2004-06-25 07:18:57 51°16.536 2°54.96 19.230111 0.022949 0.12134 7.848358
2004-06-25 07:19:02 51°16.538 2°54.967 19.230111 0.022949 0.12134 7.848358
2004-06-25 07:19:06 51°16.54 2°54.971 19.234202 0.022949 0.121343 7.814648
2004-06-25 07:19:12 51°16.542 2°54.979 19.233261 0.022949 0.121341 7.814648
2004-06-25 07:19:17 51°16.544 2°54.984 19.23097 0.022949 0.121343 7.814648
2004-06-25 07:19:21 51°16.545 2°54.989 19.236902 0.022949 0.121343 7.814648
2004-06-25 07:19:26 51°16.548 2°54.994 19.229906 0.022949 0.121343 7.848358
2004-06-25 07:19:38 51°16.552 2°55.008 19.231338 0.022949 0.121343 7.814648
2004-06-25 07:19:41 51°16.554 2°55.011 19.234366 0.022949 0.121345 7.814648
2004-06-25 07:19:48 51°16.556 2°55.019 19.23097 0.022949 0.121345 7.814648
2004-06-25 07:19:53 51°16.558 2°55.024 19.238047 0.022949 0.121345 7.814648
2004-06-25 07:19:58 51°16.561 2°55.029 19.23457 0.022949 0.121343 7.814648
2004-06-25 07:20:04 51°16.563 2°55.036 19.241606 0.022949 0.121345 7.780939
2004-06-25 07:20:08 51°16.564 2°55.041 19.241606 0.022949 0.121345 7.780939
2004-06-25 07:20:12 51°16.566 2°55.045 19.234447 0.022949 0.121343 7.814648
2004-06-25 07:20:17 51°16.568 2°55.05 19.243529 0.022949 0.121345 7.814648
2004-06-25 07:20:22 51°16.57 2°55.056 19.240911 0.022949 0.121343 7.814648
2004-06-25 07:20:28 51°16.572 2°55.063 19.239193 0.022949 0.121343 7.814648
2004-06-25 07:20:33 51°16.575 2°55.068 19.246555 0.022949 0.121343 7.814648
2004-06-25 07:20:38 51°16.577 2°55.074 19.251054 0.022949 0.121343 7.848358
2004-06-25 07:20:42 51°16.578 2°55.078 19.251054 0.022949 0.121343 7.848358
2004-06-25 07:20:48 51°16.581 2°55.084 19.251913 0.022949 0.121343 7.780939
2004-06-25 07:20:53 51°16.583 2°55.09 19.250605 0.022949 0.121343 7.780939
2004-06-25 07:20:57 51°16.584 2°55.094 19.246105 0.022949 0.121343 7.780939
2004-06-25 07:21:01 51°16.586 2°55.098 19.245533 0.022949 0.121343 7.814648
2004-06-25 07:21:08 51°16.589 2°55.106 19.245533 0.022949 0.121343 7.814648
2004-06-25 07:21:13 51°16.591 2°55.111 19.244019 0.022949 0.121343 7.780939
2004-06-25 07:21:18 51°16.593 2°55.116 19.245901 0.022949 0.121343 7.780939
2004-06-25 07:21:21 51°16.594 2°55.119 19.249909 0.022949 0.121343 7.848358
2004-06-25 07:21:28 51°16.597 2°55.127 19.246228 0.022949 0.121345 7.780939
2004-06-25 07:21:33 51°16.6 2°55.131 19.254735 0.022949 0.121345 7.814648
2004-06-25 07:21:37 51°16.601 2°55.137 19.254735 0.022949 0.121345 7.814648
2004-06-25 07:21:41 51°16.603 2°55.14 19.263364 0.022949 0.121347 7.814648
2004-06-25 07:21:48 51°16.606 2°55.147 19.258539 0.022949 0.121347 7.814648
2004-06-25 07:21:53 51°16.607 2°55.153 19.249296 0.022949 0.121345 7.780939
2004-06-25 07:21:58 51°16.61 2°55.158 19.253549 0.022949 0.121347 7.848358
2004-06-25 07:22:03 51°16.612 2°55.163 19.259888 0.022949 0.121347 7.814648
2004-06-25 07:22:08 51°16.614 2°55.168 19.259888 0.022949 0.121347 7.814648
2004-06-25 07:22:13 51°16.616 2°55.172 19.257312 0.022949 0.121348 7.780939
2004-06-25 07:22:17 51°16.617 2°55.177 19.257598 0.022949 0.121348 7.814648
2004-06-25 07:22:21 51°16.62 2°55.18 19.257025 0.022949 0.121348 7.814648
2004-06-25 07:22:28 51°16.623 2°55.187 19.262791 0.022949 0.12135 7.814648
2004-06-25 07:22:33 51°16.625 2°55.192 19.266594 0.022949 0.121348 7.780939
2004-06-25 07:22:37 51°16.626 2°55.197 19.266594 0.022949 0.121348 7.780939
2004-06-25 07:22:41 51°16.628 2°55.2 19.269007 0.022949 0.121348 7.848358
2004-06-25 07:22:48 51°16.631 2°55.207 19.261401 0.022949 0.121348 7.814648
2004-06-25 07:22:53 51°16.634 2°55.212 19.269007 0.022949 0.121347 7.814648
2004-06-25 07:22:57 51°16.635 2°55.216 19.273627 0.022949 0.121347 7.814648
2004-06-25 07:23:01 51°16.637 2°55.221 19.272809 0.022949 0.121348 7.814648
2004-06-25 07:23:07 51°16.64 2°55.227 19.272809 0.022949 0.121348 7.814648
2004-06-25 07:23:13 51°16.643 2°55.233 19.267535 0.022949 0.121347 7.780939
2004-06-25 07:23:17 51°16.644 2°55.238 19.274527 0.022949 0.121347 7.780939
2004-06-25 07:23:23 51°16.647 2°55.244 19.273872 0.022949 0.121347 7.814648
2004-06-25 07:23:28 51°16.649 2°55.249 19.270929 0.022949 0.121347 7.814648
2004-06-25 07:23:33 51°16.652 2°55.254 19.277511 0.022949 0.121347 7.814648
2004-06-25 07:23:37 51°16.653 2°55.258 19.277511 0.022949 0.121347 7.814648
2004-06-25 07:23:41 51°16.655 2°55.263 19.275835 0.022949 0.121348 7.848358
2004-06-25 07:23:50 51°16.659 2°55.272 19.275099 0.022949 0.121348 7.780939
2004-06-25 07:23:55 51°16.661 2°55.278 19.278738 0.022949 0.121348 7.780939
2004-06-25 07:24:00 51°16.664 2°55.282 19.27653 0.022949 0.121348 7.814648
2004-06-25 07:24:05 51°16.666 2°55.289 19.274935 0.022949 0.121348 7.814648
2004-06-25 07:24:10 51°16.668 2°55.294 19.278738 0.022949 0.121348 7.814648
2004-06-25 07:24:13 51°16.669 2°55.298 19.284992 0.022949 0.121348 7.814648
2004-06-25 07:24:20 51°16.672 2°55.306 19.284992 0.022949 0.121348 7.814648
2004-06-25 07:24:29 51°16.676 2°55.316 19.285974 0.022949 0.12135 7.848358
2004-06-25 07:24:35 51°16.678 2°55.323 19.284747 0.022949 0.12135 7.814648
2004-06-25 07:24:40 51°16.68 2°55.33 19.286791 0.022949 0.12135 7.814648
2004-06-25 07:24:44 51°16.682 2°55.334 19.286668 0.022949 0.121352 7.814648
2004-06-25 07:24:50 51°16.684 2°55.341 19.286668 0.022949 0.121352 7.814648
2004-06-25 07:24:55 51°16.685 2°55.348 19.291574 0.022949 0.121354 7.780939
2004-06-25 07:25:00 51°16.688 2°55.354 19.287772 0.022949 0.121352 7.814648
2004-06-25 07:25:05 51°16.689 2°55.361 19.288631 0.022949 0.121354 7.848358
2004-06-25 07:25:10 51°16.692 2°55.367 19.292023 0.022949 0.121355 7.814648
2004-06-25 07:25:16 51°16.693 2°55.375 19.297623 0.022949 0.121355 7.780939
2004-06-25 07:25:20 51°16.694 2°55.38 19.297623 0.022949 0.121355 7.780939
2004-06-25 07:25:25 51°16.696 2°55.386 19.288385 0.022949 0.121354 7.848358
2004-06-25 07:25:29 51°16.698 2°55.392 19.293168 0.022949 0.121354 7.848358
2004-06-25 07:25:34 51°16.699 2°55.398 19.290961 0.022949 0.121354 7.814648
2004-06-25 07:25:40 51°16.701 2°55.406 19.293617 0.022949 0.121355 7.814648
2004-06-25 07:25:44 51°16.702 2°55.411 19.299053 0.022949 0.121355 7.848358
2004-06-25 07:25:49 51°16.704 2°55.418 19.299053 0.022949 0.121355 7.848358
2004-06-25 07:25:54 51°16.705 2°55.425 19.297378 0.022949 0.121355 7.814648
2004-06-25 07:26:00 51°16.706 2°55.434 19.299503 0.022949 0.121354 7.780939
2004-06-25 07:26:05 51°16.709 2°55.44 19.30359 0.022949 0.121354 7.848358
2004-06-25 07:26:10 51°16.71 2°55.447 19.297173 0.022949 0.121355 7.814648
2004-06-25 07:26:15 51°16.71 2°55.454 19.298522 0.022949 0.121354 7.780939
2004-06-25 07:26:20 51°16.712 2°55.461 19.298522 0.022949 0.121354 7.780939
2004-06-25 07:26:25 51°16.713 2°55.468 19.298277 0.022949 0.121354 7.814648
2004-06-25 07:26:29 51°16.714 2°55.474 19.299585 0.022949 0.121352 7.814648
2004-06-25 07:26:38 51°16.716 2°55.486 19.300116 0.022949 0.121354 7.814648
2004-06-25 07:26:42 51°16.716 2°55.492 19.30314 0.022949 0.121352 7.780939
2004-06-25 07:26:48 51°16.718 2°55.501 19.306206 0.022949 0.12135 7.780939
2004-06-25 07:26:53 51°16.718 2°55.508 19.30032 0.022949 0.121352 7.814648
2004-06-25 07:26:58 51°16.719 2°55.515 19.303876 0.022949 0.12135 7.814648
2004-06-25 07:27:01 51°16.719 2°55.52 19.313725 0.022949 0.12135 7.814648
2004-06-25 07:27:08 51°16.721 2°55.53 19.313725 0.022949 0.12135 7.814648
2004-06-25 07:27:13 51°16.722 2°55.537 19.305102 0.022949 0.121348 7.780939
2004-06-25 07:27:17 51°16.722 2°55.543 19.311355 0.022949 0.121348 7.814648
2004-06-25 07:27:23 51°16.722 2°55.551 19.318628 0.022949 0.121348 7.814648
2004-06-25 07:27:28 51°16.723 2°55.559 19.308698 0.022949 0.121348 7.814648
2004-06-25 07:27:33 51°16.723 2°55.566 19.312867 0.022949 0.121347 7.780939
2004-06-25 07:27:37 51°16.724 2°55.572 19.312867 0.022949 0.121347 7.780939
2004-06-25 07:27:42 51°16.724 2°55.579 19.308739 0.022949 0.121347 7.848358
2004-06-25 07:27:48 51°16.724 2°55.587 19.310088 0.022949 0.121348 7.814648
2004-06-25 07:27:50 51°16.724 2°55.59 19.314746 0.022949 0.121347 7.814648
2004-06-25 07:27:58 51°16.724 2°55.602 19.311232 0.022949 0.121347 7.814648
2004-06-25 07:28:03 51°16.726 2°55.61 19.31634 0.022949 0.121345 7.780939
2004-06-25 07:28:08 51°16.726 2°55.617 19.31634 0.022949 0.121345 7.780939
2004-06-25 07:28:13 51°16.725 2°55.624 19.324307 0.022949 0.121348 7.780939
2004-06-25 07:28:17 51°16.725 2°55.63 19.318914 0.022949 0.121348 7.814648
2004-06-25 07:28:21 51°16.726 2°55.636 19.322183 0.022949 0.121348 7.814648
2004-06-25 07:28:28 51°16.725 2°55.646 19.320058 0.022949 0.12135 7.814648
2004-06-25 07:28:33 51°16.726 2°55.653 19.324348 0.022949 0.12135 7.814648
2004-06-25 07:28:37 51°16.726 2°55.659 19.324348 0.022949 0.12135 7.814648
2004-06-25 07:28:42 51°16.726 2°55.666 19.324144 0.022949 0.121352 7.814648
2004-06-25 07:28:48 51°16.726 2°55.675 19.324307 0.022949 0.121352 7.814648
2004-06-25 07:28:52 51°16.726 2°55.68 19.325615 0.022949 0.121352 7.814648
2004-06-25 07:28:58 51°16.726 2°55.689 19.329863 0.022949 0.121352 7.814648
2004-06-25 07:29:03 51°16.726 2°55.696 19.323817 0.022949 0.121352 7.780939
2004-06-25 07:29:08 51°16.726 2°55.704 19.323817 0.022949 0.121352 7.780939
2004-06-25 07:29:13 51°16.726 2°55.711 19.331252 0.022949 0.121352 7.780939
2004-06-25 07:29:17 51°16.726 2°55.716 19.337135 0.022949 0.12135 7.814648
2004-06-25 07:29:24 51°16.726 2°55.726 19.340076 0.022949 0.12135 7.814648
2004-06-25 07:29:28 51°16.725 2°55.732 19.3393 0.022949 0.12135 7.780939
2004-06-25 07:29:33 51°16.725 2°55.738 19.330926 0.022949 0.12135 7.780939
2004-06-25 07:29:37 51°16.725 2°55.744 19.330926 0.022949 0.12135 7.780939
2004-06-25 07:29:43 51°16.725 2°55.752 19.332315 0.022949 0.121348 7.848358
2004-06-25 07:29:48 51°16.725 2°55.759 19.334398 0.022949 0.121348 7.848358
2004-06-25 07:29:53 51°16.725 2°55.766 19.336522 0.022949 0.121348 7.814648
2004-06-25 07:29:58 51°16.724 2°55.773 19.338646 0.022949 0.121347 7.814648
2004-06-25 07:30:02 51°16.725 2°55.778 19.344079 0.022949 0.121347 7.848358
2004-06-25 07:30:08 51°16.725 2°55.787 19.344079 0.022949 0.121347 7.848358
2004-06-25 07:30:13 51°16.724 2°55.793 19.338646 0.022949 0.121347 7.780939
2004-06-25 07:30:16 51°16.725 2°55.797 19.345672 0.022949 0.121345 7.814648
2004-06-25 07:30:22 51°16.724 2°55.805 19.350655 0.022949 0.121345 7.848358
2004-06-25 07:30:28 51°16.724 2°55.813 19.344201 0.022949 0.121345 7.814648
2004-06-25 07:30:33 51°16.724 2°55.82 19.344487 0.022949 0.121345 7.814648
2004-06-25 07:30:36 51°16.724 2°55.824 19.344487 0.022949 0.121345 7.814648
2004-06-25 07:30:41 51°16.724 2°55.831 19.341792 0.022949 0.121347 7.814648
2004-06-25 07:30:48 51°16.724 2°55.84 19.340648 0.022949 0.121345 7.814648
2004-06-25 07:30:53 51°16.725 2°55.846 19.348286 0.022949 0.121347 7.814648
2004-06-25 07:30:58 51°16.724 2°55.853 19.346938 0.022949 0.121345 7.814648
2004-06-25 07:31:03 51°16.725 2°55.86 19.350246 0.022949 0.121345 7.814648
2004-06-25 07:31:08 51°16.725 2°55.866 19.350246 0.022949 0.121345 7.814648
2004-06-25 07:31:13 51°16.725 2°55.873 19.351185 0.022949 0.121345 7.780939
2004-06-25 07:31:18 51°16.726 2°55.88 19.344446 0.022949 0.121347 7.814648
2004-06-25 07:31:22 51°16.725 2°55.885 19.347755 0.022949 0.121345 7.814648
2004-06-25 07:31:28 51°16.726 2°55.893 19.35433 0.022949 0.121345 7.814648
2004-06-25 07:31:33 51°16.727 2°55.901 19.35482 0.022949 0.121347 7.814648
2004-06-25 07:31:38 51°16.727 2°55.908 19.35482 0.022949 0.121347 7.814648
2004-06-25 07:31:43 51°16.728 2°55.914 19.359925 0.022949 0.121347 7.814648
2004-06-25 07:31:48 51°16.728 2°55.921 19.355555 0.022949 0.121345 7.814648
2004-06-25 07:31:53 51°16.729 2°55.928 19.353513 0.022949 0.121347 7.814648
2004-06-25 07:31:57 51°16.728 2°55.934 19.3558 0.022949 0.121345 7.814648
2004-06-25 07:32:03 51°16.729 2°55.943 19.356168 0.022949 0.121347 7.780939
2004-06-25 07:32:08 51°16.73 2°55.95 19.356168 0.022949 0.121347 7.780939
2004-06-25 07:32:13 51°16.731 2°55.957 19.364702 0.022949 0.121347 7.780939
2004-06-25 07:32:17 51°16.731 2°55.963 19.365397 0.022949 0.121345 7.848358
2004-06-25 07:32:22 51°16.731 2°55.97 19.363437 0.022949 0.121345 7.814648
2004-06-25 07:32:28 51°16.733 2°55.978 19.37099 0.022949 0.121347 7.780939
2004-06-25 07:32:30 51°16.733 2°55.981 19.368418 0.022949 0.121345 7.814648
2004-06-25 07:32:38 51°16.734 2°55.992 19.368418 0.022949 0.121345 7.814648
2004-06-25 07:32:43 51°16.734 2°55.999 19.366458 0.022949 0.121345 7.814648
2004-06-25 07:32:48 51°16.736 2°56.006 19.3705 0.022949 0.121345 7.780939
2004-06-25 07:32:53 51°16.736 2°56.013 19.369643 0.022949 0.121345 7.814648
2004-06-25 07:32:58 51°16.737 2°56.02 19.366581 0.022949 0.121345 7.814648
2004-06-25 07:33:02 51°16.737 2°56.025 19.373277 0.022949 0.121345 7.780939
2004-06-25 07:33:07 51°16.738 2°56.032 19.373277 0.022949 0.121345 7.780939
2004-06-25 07:33:12 51°16.739 2°56.039 19.375073 0.022949 0.121347 7.814648
2004-06-25 07:33:16 51°16.74 2°56.044 19.379074 0.022949 0.121345 7.814648
2004-06-25 07:33:23 51°16.741 2°56.053 19.379482 0.022949 0.121345 7.814648
2004-06-25 07:33:28 51°16.741 2°56.06 19.378135 0.022949 0.121347 7.780939
2004-06-25 07:33:32 51°16.742 2°56.065 19.379768 0.022949 0.121345 7.814648
2004-06-25 07:33:38 51°16.742 2°56.073 19.379768 0.022949 0.121345 7.814648
2004-06-25 07:33:43 51°16.744 2°56.079 19.38332 0.022949 0.121345 7.814648
2004-06-25 07:33:48 51°16.744 2°56.086 19.374257 0.022949 0.121347 7.780939
2004-06-25 07:33:53 51°16.745 2°56.092 19.381605 0.022949 0.121347 7.814648
2004-06-25 07:33:57 51°16.746 2°56.097 19.384708 0.022949 0.121347 7.814648
2004-06-25 07:34:01 51°16.746 2°56.103 19.384912 0.022949 0.121347 7.814648
2004-06-25 07:34:06 51°16.748 2°56.109 19.384912 0.022949 0.121347 7.814648
2004-06-25 07:34:13 51°16.749 2°56.118 19.378788 0.022949 0.121347 7.814648
2004-06-25 07:34:17 51°16.749 2°56.123 19.385279 0.022949 0.121347 7.814648
2004-06-25 07:34:23 51°16.751 2°56.13 19.394055 0.022949 0.121347 7.814648
2004-06-25 07:34:28 51°16.752 2°56.137 19.385361 0.022949 0.121348 7.814648
2004-06-25 07:34:33 51°16.753 2°56.144 19.389361 0.022949 0.121348 7.780939
2004-06-25 07:34:38 51°16.754 2°56.15 19.397034 0.022949 0.121352 7.814648
2004-06-25 07:34:43 51°16.756 2°56.156 19.397034 0.022949 0.121352 7.814648
2004-06-25 07:34:48 51°16.757 2°56.162 19.387279 0.022949 0.12135 7.780939
2004-06-25 07:34:51 51°16.758 2°56.166 19.390749 0.022949 0.121348 7.814648
2004-06-25 07:34:57 51°16.76 2°56.173 19.395728 0.022949 0.12135 7.848358
2004-06-25 07:35:03 51°16.761 2°56.181 19.40132 0.022949 0.121352 7.814648
2004-06-25 07:35:08 51°16.763 2°56.187 19.40132 0.022949 0.121352 7.814648
2004-06-25 07:35:13 51°16.765 2°56.193 19.3943 0.022949 0.121354 7.814648
2004-06-25 07:35:18 51°16.766 2°56.199 19.392341 0.022949 0.121352 7.814648
2004-06-25 07:35:23 51°16.767 2°56.205 19.396626 0.022949 0.121352 7.814648
2004-06-25 07:35:28 51°16.769 2°56.211 19.397034 0.022949 0.121352 7.814648
2004-06-25 07:35:33 51°16.771 2°56.217 19.401197 0.022949 0.121352 7.780939
2004-06-25 07:35:38 51°16.772 2°56.223 19.401197 0.022949 0.121352 7.780939
2004-06-25 07:35:43 51°16.774 2°56.229 19.407849 0.022949 0.12135 7.814648
2004-06-25 07:35:47 51°16.775 2°56.234 19.407972 0.022949 0.121352 7.848358
2004-06-25 07:35:53 51°16.777 2°56.241 19.407604 0.022949 0.12135 7.814648
2004-06-25 07:35:58 51°16.778 2°56.247 19.402462 0.022949 0.12135 7.814648
2004-06-25 07:36:03 51°16.779 2°56.253 19.402462 0.022949 0.12135 7.780939
2004-06-25 07:36:08 51°16.781 2°56.259 19.402462 0.022949 0.12135 7.780939
2004-06-25 07:36:13 51°16.783 2°56.264 19.404299 0.022949 0.12135 7.814648
2004-06-25 07:36:17 51°16.783 2°56.269 19.403075 0.022949 0.12135 7.814648
2004-06-25 07:36:22 51°16.786 2°56.275 19.408217 0.022949 0.12135 7.814648
2004-06-25 07:36:28 51°16.788 2°56.282 19.414174 0.022949 0.12135 7.814648
2004-06-25 07:36:33 51°16.789 2°56.288 19.410706 0.022949 0.12135 7.780939
2004-06-25 07:36:42 51°16.792 2°56.299 19.410869 0.022949 0.12135 7.814648
2004-06-25 07:36:46 51°16.793 2°56.304 19.410624 0.022949 0.121348 7.814648
2004-06-25 07:36:52 51°16.795 2°56.31 19.412828 0.022949 0.12135 7.814648
2004-06-25 07:36:56 51°16.796 2°56.316 19.422212 0.022949 0.121352 7.814648
2004-06-25 07:37:02 51°16.798 2°56.322 19.422212 0.022949 0.121352 7.814648
2004-06-25 07:37:06 51°16.8 2°56.327 19.41956 0.022949 0.121352 7.814648
2004-06-25 07:37:11 51°16.801 2°56.333 19.414664 0.022949 0.12135 7.814648
2004-06-25 07:37:17 51°16.803 2°56.34 19.414664 0.022949 0.12135 7.780939
2004-06-25 07:37:22 51°16.805 2°56.346 19.415643 0.022949 0.121352 7.780939
2004-06-25 07:37:27 51°16.807 2°56.352 19.426577 0.022949 0.121354 7.848358
2004-06-25 07:37:32 51°16.807 2°56.358 19.426577 0.022949 0.121354 7.848358
2004-06-25 07:37:37 51°16.81 2°56.364 19.424007 0.022949 0.121352 7.814648
2004-06-25 07:37:42 51°16.811 2°56.37 19.426006 0.022949 0.121355 7.814648
2004-06-25 07:37:47 51°16.813 2°56.375 19.428046 0.022949 0.121355 7.848358
2004-06-25 07:37:52 51°16.815 2°56.381 19.421886 0.022949 0.121354 7.848358
2004-06-25 07:37:57 51°16.816 2°56.387 19.425476 0.022949 0.121355 7.814648
2004-06-25 07:38:02 51°16.818 2°56.392 19.425476 0.022949 0.121355 7.814648
2004-06-25 07:38:06 51°16.818 2°56.397 19.423885 0.022949 0.121355 7.814648
2004-06-25 07:38:12 51°16.821 2°56.403 19.430004 0.022949 0.121355 7.814648
2004-06-25 07:38:17 51°16.822 2°56.409 19.420621 0.022949 0.121357 7.780939
2004-06-25 07:38:22 51°16.822 2°56.415 19.423028 0.022949 0.121355 7.814648
2004-06-25 07:38:26 51°16.824 2°56.418 19.431187 0.022949 0.121357 7.814648
2004-06-25 07:38:32 51°16.825 2°56.426 19.432941 0.022949 0.121357 7.814648
2004-06-25 07:38:37 51°16.827 2°56.431 19.432941 0.022949 0.121357 7.814648
2004-06-25 07:38:42 51°16.828 2°56.436 19.432126 0.022949 0.121357 7.814648
2004-06-25 07:38:46 51°16.828 2°56.44 19.434736 0.022949 0.121359 7.814648
2004-06-25 07:38:52 51°16.83 2°56.446 19.433472 0.022949 0.121359 7.814648
2004-06-25 07:38:57 51°16.831 2°56.451 19.441997 0.022949 0.121359 7.780939
2004-06-25 07:39:02 51°16.833 2°56.457 19.441997 0.022949 0.121359 7.780939
2004-06-25 07:39:08 51°16.835 2°56.462 19.441711 0.022949 0.121359 7.814648
2004-06-25 07:39:12 51°16.835 2°56.467 19.437347 0.022949 0.121357 7.814648
2004-06-25 07:39:17 51°16.837 2°56.471 19.441915 0.022949 0.121357 7.780939
2004-06-25 07:39:22 51°16.837 2°56.477 19.432493 0.022949 0.121357 7.814648
2004-06-25 07:39:26 51°16.839 2°56.48 19.438693 0.022949 0.121357 7.814648
2004-06-25 07:39:32 51°16.841 2°56.486 19.438693 0.022949 0.121357 7.814648
2004-06-25 07:39:37 51°16.841 2°56.492 19.440732 0.022949 0.121355 7.780939
2004-06-25 07:39:42 51°16.843 2°56.497 19.442405 0.022949 0.121357 7.814648
2004-06-25 07:39:46 51°16.843 2°56.501 19.444811 0.022949 0.121355 7.814648
2004-06-25 07:39:52 51°16.845 2°56.507 19.444199 0.022949 0.121355 7.780939
2004-06-25 07:39:57 51°16.847 2°56.511 19.455089 0.022949 0.121357 7.814648
2004-06-25 07:40:00 51°16.848 2°56.515 19.455089 0.022949 0.121357 7.814648
2004-06-25 07:40:07 51°16.85 2°56.522 19.445097 0.022949 0.121357 7.848358
2004-06-25 07:40:12 51°16.851 2°56.527 19.446932 0.022949 0.121359 7.780939
2004-06-25 07:40:17 51°16.853 2°56.532 19.451622 0.022949 0.12136 7.814648
2004-06-25 07:40:22 51°16.854 2°56.537 19.448604 0.022949 0.12136 7.814648
2004-06-25 07:40:27 51°16.856 2°56.542 19.458106 0.022949 0.12136 7.814648
2004-06-25 07:40:32 51°16.857 2°56.547 19.458106 0.022949 0.12136 7.814648
2004-06-25 07:40:37 51°16.859 2°56.552 19.453213 0.022949 0.121359 7.814648
2004-06-25 07:40:42 51°16.861 2°56.558 19.449461 0.022949 0.121359 7.780939
2004-06-25 07:40:47 51°16.862 2°56.563 19.458269 0.022949 0.12136 7.814648
2004-06-25 07:40:52 51°16.864 2°56.567 19.46304 0.022949 0.12136 7.780939
2004-06-25 07:40:57 51°16.865 2°56.574 19.458799 0.022949 0.121359 7.814648
2004-06-25 07:41:02 51°16.868 2°56.578 19.458799 0.022949 0.121359 7.814648
2004-06-25 07:41:05 51°16.868 2°56.581 19.460716 0.022949 0.121362 7.814648
2004-06-25 07:41:12 51°16.871 2°56.588 19.455007 0.022949 0.12136 7.780939
2004-06-25 07:41:17 51°16.872 2°56.594 19.454395 0.022949 0.121362 7.814648
2004-06-25 07:41:22 51°16.874 2°56.598 19.458188 0.022949 0.12136 7.848358
2004-06-25 07:41:27 51°16.875 2°56.604 19.466588 0.022949 0.121362 7.780939
2004-06-25 07:41:32 51°16.877 2°56.61 19.466588 0.022949 0.121362 7.780939
2004-06-25 07:41:37 51°16.879 2°56.615 19.459697 0.022949 0.12136 7.780939
2004-06-25 07:41:41 51°16.881 2°56.619 19.469564 0.022949 0.121359 7.814648
2004-06-25 07:41:46 51°16.882 2°56.624 19.464263 0.022949 0.12136 7.780939
2004-06-25 07:41:52 51°16.884 2°56.631 19.468626 0.022949 0.121359 7.780939
2004-06-25 07:41:57 51°16.885 2°56.637 19.465364 0.022949 0.12136 7.848358
2004-06-25 07:42:02 51°16.886 2°56.642 19.465364 0.022949 0.12136 7.848358
2004-06-25 07:42:06 51°16.888 2°56.646 19.462388 0.022949 0.121359 7.814648
2004-06-25 07:42:12 51°16.889 2°56.652 19.462062 0.022949 0.12136 7.814648
2004-06-25 07:42:17 51°16.889 2°56.658 19.464263 0.022949 0.121359 7.848358
2004-06-25 07:42:22 51°16.891 2°56.663 19.470135 0.022949 0.12136 7.814648
2004-06-25 07:42:27 51°16.892 2°56.668 19.473682 0.022949 0.121359 7.814648
2004-06-25 07:42:31 51°16.893 2°56.672 19.472866 0.022949 0.121362 7.780939
2004-06-25 07:42:36 51°16.894 2°56.677 19.472866 0.022949 0.121362 7.780939
2004-06-25 07:42:42 51°16.894 2°56.684 19.471032 0.022949 0.121362 7.814648
2004-06-25 07:42:46 51°16.895 2°56.688 19.471969 0.022949 0.121362 7.780939
2004-06-25 07:42:52 51°16.896 2°56.695 19.472133 0.022949 0.121362 7.814648
2004-06-25 07:42:57 51°16.897 2°56.701 19.472907 0.022949 0.121362 7.814648
2004-06-25 07:43:01 51°16.898 2°56.705 19.472907 0.022949 0.121362 7.814648
2004-06-25 07:43:07 51°16.898 2°56.712 19.47413 0.022949 0.121362 7.780939
2004-06-25 07:43:12 51°16.899 2°56.718 19.476291 0.022949 0.121362 7.780939
2004-06-25 07:43:16 51°16.9 2°56.723 19.484933 0.022949 0.12136 7.814648
2004-06-25 07:43:22 51°16.9 2°56.731 19.478044 0.022949 0.121359 7.814648
2004-06-25 07:43:26 51°16.9 2°56.735 19.482569 0.022949 0.12136 7.814648
2004-06-25 07:43:32 51°16.9 2°56.743 19.482569 0.022949 0.12136 7.814648
2004-06-25 07:43:35 51°16.902 2°56.748 19.480531 0.022949 0.121359 7.814648
2004-06-25 07:43:41 51°16.901 2°56.755 19.476454 0.022949 0.12136 7.814648
2004-06-25 07:43:46 51°16.901 2°56.762 19.480327 0.022949 0.12136 7.780939
2004-06-25 07:43:52 51°16.901 2°56.771 19.478859 0.022949 0.12136 7.848358
2004-06-25 07:43:57 51°16.901 2°56.777 19.479552 0.022949 0.121359 7.780939
2004-06-25 07:44:02 51°16.901 2°56.784 19.479552 0.022949 0.121359 7.780939
2004-06-25 07:44:07 51°16.9 2°56.79 19.485708 0.022949 0.12136 7.780939
2004-06-25 07:44:12 51°16.9 2°56.797 19.484077 0.022949 0.121359 7.848358
2004-06-25 07:44:17 51°16.9 2°56.803 19.495205 0.022949 0.121359 7.814648
2004-06-25 07:44:20 51°16.899 2°56.806 19.489988 0.022949 0.121359 7.780939
2004-06-25 07:44:25 51°16.899 2°56.813 19.492026 0.022949 0.121357 7.780939
2004-06-25 07:44:32 51°16.898 2°56.821 19.492026 0.022949 0.121357 7.780939
2004-06-25 07:44:37 51°16.898 2°56.827 19.484159 0.022949 0.121359 7.814648
2004-06-25 07:44:41 51°16.897 2°56.832 19.485463 0.022949 0.121357 7.780939
2004-06-25 07:44:47 51°16.897 2°56.839 19.491292 0.022949 0.121357 7.814648
2004-06-25 07:44:52 51°16.896 2°56.845 19.492637 0.022949 0.121357 7.814648
2004-06-25 07:44:57 51°16.895 2°56.85 19.490762 0.022949 0.121357 7.814648
2004-06-25 07:45:02 51°16.895 2°56.856 19.490762 0.022949 0.121357 7.814648
2004-06-25 07:45:06 51°16.894 2°56.861 19.502948 0.022949 0.121357 7.780939
2004-06-25 07:45:12 51°16.893 2°56.868 19.501725 0.022949 0.121355 7.814648
2004-06-25 07:45:17 51°16.893 2°56.873 19.504823 0.022949 0.121355 7.780939
2004-06-25 07:45:22 51°16.891 2°56.878 19.504537 0.022949 0.121357 7.848358
2004-06-25 07:45:27 51°16.891 2°56.884 19.501033 0.022949 0.121355 7.814648
2004-06-25 07:45:32 51°16.89 2°56.889 19.501033 0.022949 0.121355 7.814648
2004-06-25 07:45:37 51°16.889 2°56.894 19.500584 0.022949 0.121355 7.780939
2004-06-25 07:45:42 51°16.888 2°56.899 19.505393 0.022949 0.121355 7.780939
2004-06-25 07:45:47 51°16.887 2°56.905 19.497405 0.022949 0.121354 7.814648
2004-06-25 07:45:52 51°16.886 2°56.91 19.503559 0.022949 0.121354 7.814648
2004-06-25 07:45:57 51°16.885 2°56.915 19.50955 0.022949 0.121354 7.780939
2004-06-25 07:46:02 51°16.884 2°56.92 19.512646 0.022949 0.121355 7.814648
2004-06-25 07:46:07 51°16.883 2°56.925 19.512646 0.022949 0.121355 7.814648
2004-06-25 07:46:11 51°16.882 2°56.929 19.509509 0.022949 0.121352 7.780939
2004-06-25 07:46:16 51°16.881 2°56.933 19.509224 0.022949 0.121354 7.780939
2004-06-25 07:46:21 51°16.88 2°56.938 19.512728 0.022949 0.12135 7.814648
2004-06-25 07:46:27 51°16.878 2°56.943 19.515743 0.022949 0.121352 7.848358
2004-06-25 07:46:29 51°16.877 2°56.945 19.515743 0.022949 0.121352 7.848358
2004-06-25 07:46:37 51°16.875 2°56.952 19.511791 0.022949 0.12135 7.780939
2004-06-25 07:46:42 51°16.874 2°56.957 19.514154 0.022949 0.121348 7.780939
2004-06-25 07:46:46 51°16.872 2°56.96 19.511139 0.022949 0.121348 7.814648
2004-06-25 07:46:52 51°16.871 2°56.965 19.511342 0.022949 0.121347 7.780939
2004-06-25 07:46:57 51°16.869 2°56.968 19.518554 0.022949 0.121347 7.814648
2004-06-25 07:47:02 51°16.868 2°56.973 19.518554 0.022949 0.121347 7.814648
2004-06-25 07:47:07 51°16.866 2°56.976 19.520143 0.022949 0.121347 7.814648
2004-06-25 07:47:11 51°16.866 2°56.979 19.525195 0.022949 0.121345 7.814648
2004-06-25 07:47:17 51°16.863 2°56.984 19.52271 0.022949 0.121345 7.780939
2004-06-25 07:47:22 51°16.862 2°56.987 19.521406 0.022949 0.121345 7.814648
2004-06-25 07:47:26 51°16.86 2°56.989 19.523321 0.022949 0.121345 7.814648
2004-06-25 07:47:30 51°16.86 2°56.992 19.523321 0.022949 0.121345 7.814648
2004-06-25 07:47:37 51°16.857 2°56.996 19.520429 0.022949 0.121345 7.780939
2004-06-25 07:47:41 51°16.856 2°56.997 19.523973 0.022949 0.121345 7.814648
2004-06-25 07:47:47 51°16.854 2°57.001 19.519695 0.022949 0.121347 7.814648
2004-06-25 07:47:50 51°16.853 2°57.003 19.521325 0.022949 0.121345 7.780939
2004-06-25 07:47:57 51°16.851 2°57.006 19.51998 0.022949 0.121345 7.780939
2004-06-25 07:48:02 51°16.85 2°57.009 19.51998 0.022949 0.121345 7.780939
2004-06-25 07:48:07 51°16.848 2°57.011 19.519369 0.022949 0.121347 7.780939
2004-06-25 07:48:12 51°16.846 2°57.014 19.52438 0.022949 0.121347 7.814648
2004-06-25 07:48:15 51°16.845 2°57.015 19.530124 0.022949 0.121345 7.848358
2004-06-25 07:48:22 51°16.843 2°57.018 19.525969 0.022949 0.121347 7.814648
2004-06-25 07:48:26 51°16.842 2°57.021 19.526051 0.022949 0.121347 7.780939
2004-06-25 07:48:32 51°16.839 2°57.024 19.526051 0.022949 0.121347 7.780939
2004-06-25 07:48:36 51°16.837 2°57.024 19.527151 0.022949 0.121343 7.814648
2004-06-25 07:48:41 51°16.835 2°57.027 19.532446 0.022949 0.12135 7.780939
2004-06-25 07:48:46 51°16.832 2°57.028 19.533465 0.022949 0.121352 7.814648
2004-06-25 07:48:52 51°16.829 2°57.031 19.538882 0.022949 0.121354 7.814648
2004-06-25 07:48:56 51°16.827 2°57.031 19.538516 0.022949 0.121352 7.780939
2004-06-25 07:49:01 51°16.824 2°57.032 19.537375 0.022949 0.121354 7.780939
2004-06-25 07:49:07 51°16.82 2°57.033 19.537375 0.022949 0.121354 7.780939
2004-06-25 07:49:12 51°16.817 2°57.033 19.53595 0.022949 0.121354 7.814648
2004-06-25 07:49:17 51°16.814 2°57.034 19.539493 0.022949 0.121352 7.814648
2004-06-25 07:49:21 51°16.811 2°57.035 19.543118 0.022949 0.121354 7.814648
2004-06-25 07:49:26 51°16.808 2°57.035 19.546987 0.022949 0.121354 7.780939
2004-06-25 07:49:32 51°16.804 2°57.033 19.546987 0.022949 0.121354 7.780939
2004-06-25 07:49:37 51°16.801 2°57.034 19.545643 0.022949 0.121352 7.814648
2004-06-25 07:49:42 51°16.798 2°57.032 19.541856 0.022949 0.121352 7.780939
2004-06-25 07:49:46 51°16.795 2°57.034 19.548331 0.022949 0.121355 7.814648
2004-06-25 07:49:52 51°16.791 2°57.032 19.548861 0.022949 0.121354 7.780939
2004-06-25 07:49:57 51°16.788 2°57.031 19.546091 0.022949 0.121352 7.780939
2004-06-25 07:50:01 51°16.786 2°57.03 19.546091 0.022949 0.121352 7.780939
2004-06-25 07:50:06 51°16.783 2°57.029 19.5522 0.022949 0.121354 7.780939
2004-06-25 07:50:12 51°16.779 2°57.027 19.551915 0.022949 0.121354 7.814648
2004-06-25 07:50:17 51°16.777 2°57.025 19.551019 0.022949 0.121355 7.814648
2004-06-25 07:50:22 51°16.774 2°57.024 19.551019 0.022949 0.121354 7.780939
2004-06-25 07:50:27 51°16.772 2°57.022 19.558349 0.022949 0.121354 7.814648
2004-06-25 07:50:32 51°16.77 2°57.021 19.558349 0.022949 0.121354 7.814648
2004-06-25 07:50:37 51°16.767 2°57.019 19.550693 0.022949 0.121354 7.780939
2004-06-25 07:50:40 51°16.766 2°57.019 19.558431 0.022949 0.121354 7.780939
2004-06-25 07:50:47 51°16.764 2°57.018 19.560141 0.022949 0.121352 7.814648
2004-06-25 07:50:52 51°16.763 2°57.015 19.558716 0.022949 0.121354 7.780939
2004-06-25 07:50:56 51°16.76 2°57.015 19.560752 0.022949 0.121354 7.814648
2004-06-25 07:51:02 51°16.759 2°57.013 19.560752 0.022949 0.121354 7.814648
2004-06-25 07:51:06 51°16.758 2°57.014 19.562421 0.022949 0.121355 7.848358
2004-06-25 07:51:12 51°16.756 2°57.012 19.558186 0.022949 0.121352 7.780939
2004-06-25 07:51:17 51°16.755 2°57.013 19.563765 0.022949 0.121354 7.780939
2004-06-25 07:51:22 51°16.753 2°57.013 19.562584 0.022949 0.121354 7.814648
2004-06-25 07:51:27 51°16.753 2°57.012 19.56181 0.022949 0.121354 7.780939
2004-06-25 07:51:32 51°16.751 2°57.012 19.56181 0.022949 0.121354 7.780939
2004-06-25 07:51:36 51°16.751 2°57.012 19.562747 0.022949 0.121354 7.780939
2004-06-25 07:51:42 51°16.749 2°57.013 19.565678 0.022949 0.121354 7.848358
2004-06-25 07:51:46 51°16.748 2°57.013 19.568569 0.022949 0.121355 7.814648
2004-06-25 07:51:52 51°16.748 2°57.013 19.564457 0.022949 0.121355 7.814648
2004-06-25 07:51:57 51°16.746 2°57.014 19.565393 0.022949 0.121355 7.780939
2004-06-25 07:52:02 51°16.746 2°57.014 19.565393 0.022949 0.121355 7.780939
2004-06-25 07:52:07 51°16.745 2°57.015 19.573902 0.022949 0.121359 7.780939
2004-06-25 07:52:12 51°16.744 2°57.016 19.575816 0.022949 0.121357 7.814648
2004-06-25 07:52:16 51°16.743 2°57.016 19.570442 0.022949 0.121359 7.780939
2004-06-25 07:52:22 51°16.743 2°57.017 19.579113 0.022949 0.121359 7.780939
2004-06-25 07:52:28 51°16.742 2°57.017 19.575572 0.022949 0.121359 7.780939
2004-06-25 07:52:32 51°16.741 2°57.018 19.575572 0.022949 0.121359 7.780939
2004-06-25 07:52:37 51°16.74 2°57.019 19.578747 0.022949 0.121359 7.814648
2004-06-25 07:52:42 51°16.74 2°57.02 19.576019 0.022949 0.121359 7.780939
2004-06-25 07:52:47 51°16.74 2°57.02 19.578503 0.022949 0.121359 7.814648
2004-06-25 07:52:52 51°16.739 2°57.022 19.586562 0.022949 0.121357 7.814648
2004-06-25 07:52:57 51°16.738 2°57.022 19.579561 0.022949 0.121357 7.848358
2004-06-25 07:53:00 51°16.738 2°57.023 19.586929 0.022949 0.121354 7.780939
2004-06-25 07:53:07 51°16.737 2°57.025 19.586929 0.022949 0.121354 7.780939
2004-06-25 07:53:12 51°16.737 2°57.027 19.58758 0.022949 0.121354 7.814648
2004-06-25 07:53:17 51°16.736 2°57.027 19.58587 0.022949 0.121357 7.780939
2004-06-25 07:53:21 51°16.736 2°57.029 19.586685 0.022949 0.121355 7.780939
2004-06-25 07:53:28 51°16.735 2°57.031 19.589574 0.022949 0.121357 7.814648
2004-06-25 07:53:32 51°16.735 2°57.031 19.589574 0.022949 0.121357 7.814648
2004-06-25 07:53:37 51°16.734 2°57.034 19.590918 0.022949 0.121354 7.814648
2004-06-25 07:53:42 51°16.734 2°57.034 19.590022 0.022949 0.121355 7.814648
2004-06-25 07:53:47 51°16.734 2°57.036 19.59572 0.022949 0.121355 7.814648
2004-06-25 07:53:52 51°16.733 2°57.037 19.592586 0.022949 0.121355 7.814648
2004-06-25 07:53:57 51°16.733 2°57.039 19.596046 0.022949 0.121354 7.780939
2004-06-25 07:54:00 51°16.733 2°57.04 19.593522 0.022949 0.121354 7.814648
2004-06-25 07:54:06 51°16.732 2°57.042 19.593522 0.022949 0.121354 7.814648
2004-06-25 07:54:12 51°16.732 2°57.044 19.595761 0.022949 0.121355 7.814648
2004-06-25 07:54:16 51°16.731 2°57.047 19.603208 0.022949 0.121355 7.780939
2004-06-25 07:54:22 51°16.731 2°57.048 19.600115 0.022949 0.121354 7.780939
2004-06-25 07:54:27 51°16.731 2°57.051 19.596697 0.022949 0.121357 7.780939
2004-06-25 07:54:32 51°16.731 2°57.052 19.596697 0.022949 0.121357 7.780939
2004-06-25 07:54:37 51°16.73 2°57.054 19.602598 0.022949 0.121357 7.780939
2004-06-25 07:54:41 51°16.73 2°57.056 19.599708 0.022949 0.121357 7.814648
2004-06-25 07:54:46 51°16.73 2°57.057 19.604185 0.022949 0.12136 7.814648
2004-06-25 07:54:52 51°16.729 2°57.06 19.601174 0.022949 0.12136 7.814648
2004-06-25 07:54:56 51°16.729 2°57.061 19.608742 0.022949 0.121359 7.780939
2004-06-25 07:55:02 51°16.729 2°57.063 19.610492 0.022949 0.12136 7.814648
2004-06-25 07:55:06 51°16.728 2°57.066 19.610492 0.022949 0.12136 7.814648
2004-06-25 07:55:12 51°16.728 2°57.067 19.604266 0.022949 0.12136 7.780939
2004-06-25 07:55:17 51°16.728 2°57.069 19.606423 0.022949 0.121359 7.780939
2004-06-25 07:55:22 51°16.727 2°57.071 19.607278 0.022949 0.121359 7.814648
2004-06-25 07:55:26 51°16.727 2°57.073 19.615253 0.022949 0.12136 7.814648
2004-06-25 07:55:32 51°16.727 2°57.075 19.615253 0.022949 0.12136 7.814648
2004-06-25 07:55:37 51°16.727 2°57.077 19.619484 0.022949 0.121362 7.814648
2004-06-25 07:55:42 51°16.726 2°57.078 19.618304 0.022949 0.121362 7.780939
2004-06-25 07:55:46 51°16.726 2°57.08 19.613666 0.022949 0.121362 7.814648
2004-06-25 07:55:52 51°16.726 2°57.082 19.614113 0.022949 0.12136 7.814648
2004-06-25 07:55:57 51°16.727 2°57.084 19.616107 0.022949 0.121362 7.814648
2004-06-25 07:56:02 51°16.726 2°57.087 19.616107 0.022949 0.121362 7.814648
2004-06-25 07:56:06 51°16.726 2°57.087 19.616839 0.022949 0.121364 7.814648
2004-06-25 07:56:12 51°16.726 2°57.09 19.61924 0.022949 0.121362 7.780939
2004-06-25 07:56:17 51°16.726 2°57.092 19.620786 0.022949 0.121362 7.814648
2004-06-25 07:56:22 51°16.726 2°57.095 19.62221 0.022949 0.121362 7.814648
2004-06-25 07:56:27 51°16.726 2°57.096 19.621681 0.022949 0.121364 7.814648
2004-06-25 07:56:32 51°16.726 2°57.099 19.623145 0.022949 0.121364 7.780939
2004-06-25 07:56:37 51°16.726 2°57.1 19.623145 0.022949 0.121364 7.780939
2004-06-25 07:56:42 51°16.725 2°57.103 19.629207 0.022949 0.121364 7.780939
2004-06-25 07:56:47 51°16.726 2°57.104 19.624935 0.022949 0.121366 7.74723
2004-06-25 07:56:52 51°16.725 2°57.107 19.630915 0.022949 0.121366 7.780939
2004-06-25 07:56:57 51°16.725 2°57.109 19.633722 0.022949 0.121366 7.814648
2004-06-25 07:57:02 51°16.725 2°57.11 19.633722 0.022949 0.121366 7.814648
2004-06-25 07:57:07 51°16.725 2°57.113 19.634942 0.022949 0.121364 7.780939
2004-06-25 07:57:12 51°16.725 2°57.115 19.626766 0.022949 0.121364 7.814648
2004-06-25 07:57:17 51°16.725 2°57.117 19.630265 0.022949 0.121362 7.814648
2004-06-25 07:57:22 51°16.724 2°57.118 19.631851 0.022949 0.121364 7.814648
2004-06-25 07:57:26 51°16.724 2°57.121 19.631932 0.022949 0.121366 7.814648
2004-06-25 07:57:32 51°16.724 2°57.123 19.631932 0.022949 0.121366 7.814648
2004-06-25 07:57:35 51°16.724 2°57.124 19.637464 0.022949 0.121364 7.780939
2004-06-25 07:57:42 51°16.724 2°57.127 19.633437 0.022949 0.121366 7.780939
2004-06-25 07:57:47 51°16.724 2°57.128 19.633153 0.022949 0.121364 7.780939
2004-06-25 07:57:52 51°16.723 2°57.131 19.637302 0.022949 0.121366 7.814648
2004-06-25 07:57:57 51°16.723 2°57.133 19.644948 0.022949 0.121364 7.814648
2004-06-25 07:58:01 51°16.723 2°57.134 19.644948 0.022949 0.121364 7.814648
2004-06-25 07:58:06 51°16.723 2°57.136 19.639417 0.022949 0.121367 7.848358
2004-06-25 07:58:10 51°16.722 2°57.138 19.638115 0.022949 0.121366 7.814648
2004-06-25 07:58:17 51°16.722 2°57.141 19.642833 0.022949 0.121367 7.780939
2004-06-25 07:58:21 51°16.722 2°57.143 19.644704 0.022949 0.121369 7.780939
2004-06-25 07:58:27 51°16.722 2°57.145 19.644053 0.022949 0.121369 7.814648
2004-06-25 07:58:29 51°16.722 2°57.146 19.644053 0.022949 0.121369 7.814648
2004-06-25 07:58:37 51°16.721 2°57.148 19.645761 0.022949 0.121371 7.780939
2004-06-25 07:58:42 51°16.721 2°57.15 19.648486 0.022949 0.121372 7.814648
2004-06-25 07:58:47 51°16.72 2°57.152 19.647754 0.022949 0.121371 7.780939
2004-06-25 07:58:52 51°16.72 2°57.154 19.655318 0.022949 0.121371 7.780939
2004-06-25 07:58:57 51°16.72 2°57.156 19.652837 0.022949 0.121371 7.814648
2004-06-25 07:59:02 51°16.719 2°57.158 19.652837 0.022949 0.121371 7.814648
2004-06-25 07:59:07 51°16.719 2°57.16 19.645761 0.022949 0.121371 7.780939
2004-06-25 07:59:12 51°16.719 2°57.161 19.653813 0.022949 0.121369 7.780939
2004-06-25 07:59:17 51°16.718 2°57.163 19.657148 0.022949 0.121371 7.780939
2004-06-25 07:59:22 51°16.718 2°57.164 19.654871 0.022949 0.121371 7.780939
2004-06-25 07:59:27 51°16.717 2°57.166 19.656619 0.022949 0.121372 7.780939
2004-06-25 07:59:32 51°16.717 2°57.167 19.656619 0.022949 0.121372 7.780939
2004-06-25 07:59:37 51°16.717 2°57.169 19.661986 0.022949 0.121372 7.780939
2004-06-25 07:59:41 51°16.716 2°57.171 19.663084 0.022949 0.121372 7.814648
2004-06-25 07:59:45 51°16.716 2°57.172 19.657229 0.022949 0.121372 7.780939
2004-06-25 07:59:52 51°16.715 2°57.174 19.660157 0.022949 0.121372 7.814648
2004-06-25 07:59:57 51°16.715 2°57.176 19.662881 0.022949 0.121371 7.814648
2004-06-25 08:00:02 51°16.715 2°57.178 19.662881 0.022949 0.121371 7.814648
2004-06-25 08:00:07 51°16.714 2°57.179 19.668329 0.022949 0.121372 7.780939
2004-06-25 08:00:12 51°16.714 2°57.181 19.664711 0.022949 0.121372 7.780939
2004-06-25 08:00:17 51°16.714 2°57.183 19.663938 0.022949 0.121371 7.780939
2004-06-25 08:00:22 51°16.713 2°57.184 19.671053 0.022949 0.121372 7.780939
2004-06-25 08:00:27 51°16.713 2°57.186 19.669102 0.022949 0.121372 7.814648
2004-06-25 08:00:32 51°16.713 2°57.187 19.667191 0.022949 0.121372 7.814648
2004-06-25 08:00:37 51°16.712 2°57.189 19.667191 0.022949 0.121372 7.814648
2004-06-25 08:00:42 51°16.712 2°57.191 19.667597 0.022949 0.121371 7.780939
2004-06-25 08:00:47 51°16.712 2°57.192 19.670403 0.022949 0.121374 7.814648
2004-06-25 08:00:52 51°16.712 2°57.194 19.675809 0.022949 0.121372 7.780939
2004-06-25 08:00:57 51°16.711 2°57.196 19.672151 0.022949 0.121372 7.780939
2004-06-25 08:01:02 51°16.711 2°57.199 19.672354 0.022949 0.121371 7.814648
2004-06-25 08:01:07 51°16.711 2°57.201 19.672354 0.022949 0.121371 7.814648
2004-06-25 08:01:12 51°16.711 2°57.203 19.670728 0.022949 0.121367 7.780939
2004-06-25 08:01:17 51°16.711 2°57.204 19.680688 0.022949 0.121369 7.780939
2004-06-25 08:01:22 51°16.711 2°57.206 19.67646 0.022949 0.121369 7.780939
2004-06-25 08:01:27 51°16.71 2°57.208 19.684712 0.022949 0.121371 7.780939
2004-06-25 08:01:32 51°16.71 2°57.209 19.684712 0.022949 0.121371 7.780939
2004-06-25 08:01:37 51°16.71 2°57.212 19.680362 0.022949 0.121369 7.780939
2004-06-25 08:01:42 51°16.71 2°57.212 19.680118 0.022949 0.121371 7.780939
2004-06-25 08:01:47 51°16.71 2°57.215 19.684874 0.022949 0.121371 7.814648
2004-06-25 08:01:52 51°16.71 2°57.217 19.684386 0.022949 0.121371 7.814648
2004-06-25 08:01:57 51°16.71 2°57.219 19.687557 0.022949 0.121371 7.814648
2004-06-25 08:02:02 51°16.709 2°57.22 19.687557 0.022949 0.121371 7.814648
2004-06-25 08:02:07 51°16.709 2°57.222 19.685077 0.022949 0.121371 7.814648
2004-06-25 08:02:12 51°16.708 2°57.223 19.692719 0.022949 0.121372 7.780939
2004-06-25 08:02:17 51°16.708 2°57.225 19.693775 0.022949 0.121374 7.814648
2004-06-25 08:02:22 51°16.708 2°57.227 19.694873 0.022949 0.121374 7.814648
2004-06-25 08:02:26 51°16.707 2°57.227 19.692637 0.022949 0.121374 7.780939
2004-06-25 08:02:30 51°16.707 2°57.229 19.692637 0.022949 0.121374 7.780939
2004-06-25 08:02:37 51°16.706 2°57.231 19.69536 0.022949 0.121374 7.814648
2004-06-25 08:02:41 51°16.706 2°57.232 19.691784 0.022949 0.121374 7.814648
2004-06-25 08:02:46 51°16.706 2°57.234 19.694304 0.022949 0.121374 7.814648
2004-06-25 08:02:52 51°16.705 2°57.236 19.692922 0.022949 0.121374 7.780939
2004-06-25 08:02:56 51°16.705 2°57.238 19.696905 0.022949 0.121376 7.814648
2004-06-25 08:03:02 51°16.704 2°57.24 19.696905 0.022949 0.121376 7.814648
2004-06-25 08:03:07 51°16.704 2°57.242 19.697758 0.022949 0.121374 7.814648
2004-06-25 08:03:12 51°16.703 2°57.243 19.701863 0.022949 0.121374 7.814648
2004-06-25 08:03:17 51°16.703 2°57.244 19.698408 0.022949 0.121372 7.780939
2004-06-25 08:03:22 51°16.702 2°57.246 19.701212 0.022949 0.121372 7.780939
2004-06-25 08:03:24 51°16.702 2°57.247 19.706292 0.022949 0.121372 7.814648
2004-06-25 08:03:32 51°16.701 2°57.249 19.706292 0.022949 0.121372 7.814648
2004-06-25 08:03:37 51°16.701 2°57.252 19.703082 0.022949 0.121371 7.780939
2004-06-25 08:03:42 51°16.7 2°57.253 19.699831 0.022949 0.121371 7.814648
2004-06-25 08:03:47 51°16.699 2°57.254 19.700968 0.022949 0.121371 7.780939
2004-06-25 08:03:52 51°16.698 2°57.255 19.705642 0.022949 0.121371 7.780939
2004-06-25 08:03:57 51°16.697 2°57.256 19.711818 0.022949 0.121369 7.814648
2004-06-25 08:04:02 51°16.695 2°57.258 19.711818 0.022949 0.121369 7.814648
2004-06-25 08:04:07 51°16.694 2°57.257 19.706901 0.022949 0.121371 7.814648
2004-06-25 08:04:12 51°16.692 2°57.257 19.709908 0.022949 0.121369 7.780939
2004-06-25 08:04:17 51°16.69 2°57.257 19.714256 0.022949 0.121369 7.814648
2004-06-25 08:04:22 51°16.688 2°57.256 19.708405 0.022949 0.121371 7.814648
2004-06-25 08:04:27 51°16.685 2°57.257 19.71714 0.022949 0.121369 7.780939
2004-06-25 08:04:32 51°16.683 2°57.254 19.720553 0.022949 0.121369 7.780939
2004-06-25 08:04:37 51°16.68 2°57.254 19.720553 0.022949 0.121369 7.780939
2004-06-25 08:04:41 51°16.678 2°57.252 19.707755 0.022949 0.121369 7.780939
2004-06-25 08:04:47 51°16.675 2°57.25 19.716693 0.022949 0.121369 7.780939
2004-06-25 08:04:52 51°16.674 2°57.247 19.715312 0.022949 0.121369 7.780939
2004-06-25 08:04:57 51°16.671 2°57.243 19.71515 0.022949 0.121367 7.814648
2004-06-25 08:05:01 51°16.67 2°57.241 19.716409 0.022949 0.121369 7.780939
2004-06-25 08:05:06 51°16.667 2°57.238 19.716409 0.022949 0.121369 7.780939
2004-06-25 08:05:12 51°16.665 2°57.233 19.720309 0.022949 0.121369 7.814648
2004-06-25 08:05:17 51°16.663 2°57.229 19.721162 0.022949 0.121369 7.780939
2004-06-25 08:05:21 51°16.662 2°57.225 19.724169 0.022949 0.121367 7.780939
2004-06-25 08:05:26 51°16.66 2°57.221 19.727743 0.022949 0.121367 7.780939
2004-06-25 08:05:32 51°16.658 2°57.215 19.722056 0.022949 0.121367 7.780939
2004-06-25 08:05:37 51°16.656 2°57.21 19.722056 0.022949 0.121367 7.780939
2004-06-25 08:05:42 51°16.654 2°57.205 19.725753 0.022949 0.121367 7.814648
2004-06-25 08:05:47 51°16.654 2°57.199 19.723112 0.022949 0.121367 7.814648
2004-06-25 08:05:52 51°16.652 2°57.194 19.729165 0.022949 0.121367 7.780939
2004-06-25 08:05:56 51°16.652 2°57.189 19.731684 0.022949 0.121367 7.780939
2004-06-25 08:06:01 51°16.65 2°57.183 19.726972 0.022949 0.121369 7.814648
2004-06-25 08:06:06 51°16.65 2°57.177 19.726972 0.022949 0.121369 7.814648
2004-06-25 08:06:12 51°16.65 2°57.171 19.737573 0.022949 0.121367 7.780939
2004-06-25 08:06:17 51°16.649 2°57.165 19.737979 0.022949 0.121367 7.780939
2004-06-25 08:06:20 51°16.649 2°57.162 19.733511 0.022949 0.121367 7.780939
2004-06-25 08:06:26 51°16.648 2°57.156 19.738873 0.022949 0.121366 7.780939
2004-06-25 08:06:32 51°16.648 2°57.15 19.738873 0.022949 0.121366 7.780939
2004-06-25 08:06:37 51°16.647 2°57.144 19.738182 0.022949 0.121366 7.74723
2004-06-25 08:06:40 51°16.647 2°57.141 19.740944 0.022949 0.121367 7.780939
2004-06-25 08:06:46 51°16.647 2°57.134 19.73867 0.022949 0.121366 7.814648
2004-06-25 08:06:52 51°16.647 2°57.128 19.738345 0.022949 0.121366 7.814648
2004-06-25 08:06:57 51°16.647 2°57.123 19.737736 0.022949 0.121366 7.814648
2004-06-25 08:07:02 51°16.647 2°57.117 19.737736 0.022949 0.121366 7.814648
2004-06-25 08:07:07 51°16.647 2°57.111 19.746102 0.022949 0.121366 7.74723
2004-06-25 08:07:12 51°16.647 2°57.106 19.743503 0.022949 0.121366 7.780939
2004-06-25 08:07:17 51°16.648 2°57.1 19.741919 0.022949 0.121364 7.814648
2004-06-25 08:07:20 51°16.648 2°57.096 19.747442 0.022949 0.121362 7.780939
2004-06-25 08:07:26 51°16.649 2°57.089 19.749716 0.022949 0.121364 7.780939
2004-06-25 08:07:32 51°16.649 2°57.082 19.749716 0.022949 0.121364 7.780939
2004-06-25 08:07:36 51°16.649 2°57.077 19.74533 0.022949 0.121362 7.780939
2004-06-25 08:07:42 51°16.651 2°57.07 19.745249 0.022949 0.121364 7.814648
2004-06-25 08:07:47 51°16.651 2°57.064 19.746386 0.022949 0.121362 7.780939
2004-06-25 08:07:52 51°16.652 2°57.057 19.754711 0.022949 0.121364 7.814648
2004-06-25 08:07:56 51°16.652 2°57.053 19.754264 0.022949 0.121364 7.780939
2004-06-25 08:08:01 51°16.653 2°57.046 19.753818 0.022949 0.121362 7.814648
2004-06-25 08:08:07 51°16.653 2°57.039 19.753818 0.022949 0.121362 7.814648
2004-06-25 08:08:12 51°16.653 2°57.033 19.750569 0.022949 0.121364 7.780939
2004-06-25 08:08:16 51°16.654 2°57.028 19.753493 0.022949 0.12136 7.780939
2004-06-25 08:08:22 51°16.654 2°57.02 19.75398 0.022949 0.121362 7.780939
2004-06-25 08:08:26 51°16.655 2°57.015 19.755645 0.022949 0.12136 7.814648
2004-06-25 08:08:32 51°16.656 2°57.008 19.755645 0.022949 0.12136 7.814648
2004-06-25 08:08:37 51°16.655 2°57.002 19.757513 0.022949 0.12136 7.780939
2004-06-25 08:08:42 51°16.656 2°56.996 19.756701 0.022949 0.12136 7.814648
2004-06-25 08:08:47 51°16.656 2°56.989 19.759056 0.022949 0.12136 7.780939
2004-06-25 08:08:52 51°16.656 2°56.983 19.757838 0.022949 0.121357 7.74723
2004-06-25 08:08:57 51°16.657 2°56.977 19.760558 0.022949 0.121359 7.814648
2004-06-25 08:09:01 51°16.657 2°56.972 19.762548 0.022949 0.121357 7.780939
2004-06-25 08:09:07 51°16.657 2°56.964 19.762548 0.022949 0.121357 7.780939
2004-06-25 08:09:10 51°16.657 2°56.961 19.76677 0.022949 0.121357 7.780939
2004-06-25 08:09:16 51°16.656 2°56.954 19.76677 0.022949 0.121357 7.74723
2004-06-25 08:09:21 51°16.656 2°56.949 19.76267 0.022949 0.121355 7.780939
2004-06-25 08:09:27 51°16.656 2°56.943 19.768881 0.022949 0.121357 7.814648
2004-06-25 08:09:32 51°16.655 2°56.937 19.768881 0.022949 0.121357 7.814648
2004-06-25 08:09:36 51°16.655 2°56.933 19.772251 0.022949 0.121357 7.780939
2004-06-25 08:09:42 51°16.654 2°56.927 19.772657 0.022949 0.121357 7.780939
2004-06-25 08:09:47 51°16.654 2°56.922 19.767623 0.022949 0.121355 7.814648
2004-06-25 08:09:52 51°16.653 2°56.917 19.769734 0.022949 0.121357 7.780939
2004-06-25 08:09:57 51°16.653 2°56.912 19.768962 0.022949 0.121357 7.780939
2004-06-25 08:10:00 51°16.652 2°56.909 19.768962 0.022949 0.121357 7.780939
2004-06-25 08:10:07 51°16.651 2°56.901 19.770099 0.022949 0.121357 7.814648
2004-06-25 08:10:12 51°16.65 2°56.896 19.772982 0.022949 0.121357 7.780939